<?xml version="1.0" encoding="UTF-8" standalone="no" ?>
<gpx xmlns="http://www.topografix.com/GPX/1/1" xmlns:xsi="http://www.w3.org/2001/XMLSchema-instance" xsi:schemaLocation="http://www.topografix.com/GPX/1/1 http://www.topografix.com/GPX/1/1/gpx.xsd" version="1.1" creator="VisuGPX - https://www.visugpx.com">
  <metadata>
    <name>Trail des Gets - Le trail Rouge</name>
  </metadata>
  <trk>
    <name><![CDATA[Trail des Gets - Le trail Rouge]]></name>
    <trkseg>
      <trkpt lat="46.16065" lon="6.6715">
        <ele>1168</ele>
        <time>2021-09-17T11:25:00Z</time>
      </trkpt>
      <trkpt lat="46.16041" lon="6.67114">
        <ele>1167</ele>
        <time>2021-09-17T11:25:00Z</time>
      </trkpt>
      <trkpt lat="46.16024" lon="6.67076">
        <ele>1165</ele>
        <time>2021-09-17T11:25:00Z</time>
      </trkpt>
      <trkpt lat="46.16002" lon="6.67049">
        <ele>1165</ele>
        <time>2021-09-17T11:25:00Z</time>
      </trkpt>
      <trkpt lat="46.15984" lon="6.67021">
        <ele>1165</ele>
        <time>2021-09-17T11:25:00Z</time>
      </trkpt>
      <trkpt lat="46.15961" lon="6.66996">
        <ele>1164</ele>
        <time>2021-09-17T11:25:00Z</time>
      </trkpt>
      <trkpt lat="46.1593" lon="6.66977">
        <ele>1165</ele>
        <time>2021-09-17T11:25:00Z</time>
      </trkpt>
      <trkpt lat="46.15912" lon="6.66956">
        <ele>1164</ele>
        <time>2021-09-17T11:25:00Z</time>
      </trkpt>
      <trkpt lat="46.1588" lon="6.66913">
        <ele>1164</ele>
        <time>2021-09-17T11:25:00Z</time>
      </trkpt>
      <trkpt lat="46.15853" lon="6.66883">
        <ele>1164</ele>
        <time>2021-09-17T11:25:00Z</time>
      </trkpt>
      <trkpt lat="46.15847" lon="6.66837">
        <ele>1162</ele>
        <time>2021-09-17T11:25:00Z</time>
      </trkpt>
      <trkpt lat="46.15846" lon="6.668">
        <ele>1161</ele>
        <time>2021-09-17T11:25:00Z</time>
      </trkpt>
      <trkpt lat="46.15847" lon="6.66767">
        <ele>1161</ele>
        <time>2021-09-17T11:25:00Z</time>
      </trkpt>
      <trkpt lat="46.15842" lon="6.66716">
        <ele>1161</ele>
        <time>2021-09-17T11:25:00Z</time>
      </trkpt>
      <trkpt lat="46.15845" lon="6.66677">
        <ele>1163</ele>
        <time>2021-09-17T11:25:00Z</time>
      </trkpt>
      <trkpt lat="46.15859" lon="6.66639">
        <ele>1166</ele>
        <time>2021-09-17T11:25:00Z</time>
      </trkpt>
      <trkpt lat="46.1585" lon="6.66609">
        <ele>1167</ele>
        <time>2021-09-17T11:25:00Z</time>
      </trkpt>
      <trkpt lat="46.15843" lon="6.66577">
        <ele>1172</ele>
        <time>2021-09-17T11:25:00Z</time>
      </trkpt>
      <trkpt lat="46.15832" lon="6.66543">
        <ele>1171</ele>
        <time>2021-09-17T11:25:00Z</time>
      </trkpt>
      <trkpt lat="46.15822" lon="6.66491">
        <ele>1175</ele>
        <time>2021-09-17T11:25:00Z</time>
      </trkpt>
      <trkpt lat="46.15807" lon="6.66455">
        <ele>1176</ele>
        <time>2021-09-17T11:25:00Z</time>
      </trkpt>
      <trkpt lat="46.15794" lon="6.66421">
        <ele>1178</ele>
        <time>2021-09-17T11:25:00Z</time>
      </trkpt>
      <trkpt lat="46.15779" lon="6.66386">
        <ele>1182</ele>
        <time>2021-09-17T11:25:00Z</time>
      </trkpt>
      <trkpt lat="46.15741" lon="6.6637">
        <ele>1182</ele>
        <time>2021-09-17T11:25:00Z</time>
      </trkpt>
      <trkpt lat="46.15709" lon="6.6635">
        <ele>1186</ele>
        <time>2021-09-17T11:25:00Z</time>
      </trkpt>
      <trkpt lat="46.15686" lon="6.66321">
        <ele>1188</ele>
        <time>2021-09-17T11:25:00Z</time>
      </trkpt>
      <trkpt lat="46.15667" lon="6.66295">
        <ele>1187</ele>
        <time>2021-09-17T11:25:00Z</time>
      </trkpt>
      <trkpt lat="46.15651" lon="6.66262">
        <ele>1187</ele>
        <time>2021-09-17T11:25:00Z</time>
      </trkpt>
      <trkpt lat="46.15629" lon="6.66225">
        <ele>1189</ele>
        <time>2021-09-17T11:25:00Z</time>
      </trkpt>
      <trkpt lat="46.15607" lon="6.66195">
        <ele>1192</ele>
        <time>2021-09-17T11:25:00Z</time>
      </trkpt>
      <trkpt lat="46.15588" lon="6.66167">
        <ele>1195</ele>
        <time>2021-09-17T11:25:00Z</time>
      </trkpt>
      <trkpt lat="46.15574" lon="6.66134">
        <ele>1199</ele>
        <time>2021-09-17T11:25:00Z</time>
      </trkpt>
      <trkpt lat="46.15563" lon="6.66092">
        <ele>1199</ele>
        <time>2021-09-17T11:25:00Z</time>
      </trkpt>
      <trkpt lat="46.1555" lon="6.66054">
        <ele>1201</ele>
        <time>2021-09-17T11:25:00Z</time>
      </trkpt>
      <trkpt lat="46.15524" lon="6.65997">
        <ele>1201</ele>
        <time>2021-09-17T11:25:00Z</time>
      </trkpt>
      <trkpt lat="46.15507" lon="6.65963">
        <ele>1203</ele>
        <time>2021-09-17T11:25:00Z</time>
      </trkpt>
      <trkpt lat="46.15486" lon="6.65933">
        <ele>1205</ele>
        <time>2021-09-17T11:25:00Z</time>
      </trkpt>
      <trkpt lat="46.15467" lon="6.65901">
        <ele>1209</ele>
        <time>2021-09-17T11:25:00Z</time>
      </trkpt>
      <trkpt lat="46.15444" lon="6.65849">
        <ele>1209</ele>
        <time>2021-09-17T11:25:00Z</time>
      </trkpt>
      <trkpt lat="46.15427" lon="6.65813">
        <ele>1207</ele>
        <time>2021-09-17T11:25:00Z</time>
      </trkpt>
      <trkpt lat="46.15413" lon="6.65781">
        <ele>1208</ele>
        <time>2021-09-17T11:25:00Z</time>
      </trkpt>
      <trkpt lat="46.15382" lon="6.65735">
        <ele>1211</ele>
        <time>2021-09-17T11:25:00Z</time>
      </trkpt>
      <trkpt lat="46.15358" lon="6.65699">
        <ele>1213</ele>
        <time>2021-09-17T11:25:00Z</time>
      </trkpt>
      <trkpt lat="46.15341" lon="6.65661">
        <ele>1213</ele>
        <time>2021-09-17T11:25:00Z</time>
      </trkpt>
      <trkpt lat="46.15323" lon="6.65641">
        <ele>1210</ele>
        <time>2021-09-17T11:25:00Z</time>
      </trkpt>
      <trkpt lat="46.15309" lon="6.65614">
        <ele>1207</ele>
        <time>2021-09-17T11:25:00Z</time>
      </trkpt>
      <trkpt lat="46.15283" lon="6.65574">
        <ele>1207</ele>
        <time>2021-09-17T11:25:00Z</time>
      </trkpt>
      <trkpt lat="46.15261" lon="6.65543">
        <ele>1205</ele>
        <time>2021-09-17T11:25:00Z</time>
      </trkpt>
      <trkpt lat="46.15242" lon="6.6552">
        <ele>1205</ele>
        <time>2021-09-17T11:25:00Z</time>
      </trkpt>
      <trkpt lat="46.1523" lon="6.65491">
        <ele>1204</ele>
        <time>2021-09-17T11:25:00Z</time>
      </trkpt>
      <trkpt lat="46.15251" lon="6.6547">
        <ele>1204</ele>
        <time>2021-09-17T11:25:00Z</time>
      </trkpt>
      <trkpt lat="46.15273" lon="6.65449">
        <ele>1203</ele>
        <time>2021-09-17T11:25:00Z</time>
      </trkpt>
      <trkpt lat="46.15309" lon="6.6541">
        <ele>1212</ele>
        <time>2021-09-17T11:25:00Z</time>
      </trkpt>
      <trkpt lat="46.1533" lon="6.65387">
        <ele>1227</ele>
        <time>2021-09-17T11:25:00Z</time>
      </trkpt>
      <trkpt lat="46.1535" lon="6.65362">
        <ele>1227</ele>
        <time>2021-09-17T11:25:00Z</time>
      </trkpt>
      <trkpt lat="46.15374" lon="6.65352">
        <ele>1235</ele>
        <time>2021-09-17T11:25:00Z</time>
      </trkpt>
      <trkpt lat="46.15354" lon="6.65323">
        <ele>1233</ele>
        <time>2021-09-17T11:25:00Z</time>
      </trkpt>
      <trkpt lat="46.15333" lon="6.653">
        <ele>1230</ele>
        <time>2021-09-17T11:25:00Z</time>
      </trkpt>
      <trkpt lat="46.1532" lon="6.6527">
        <ele>1230</ele>
        <time>2021-09-17T11:25:00Z</time>
      </trkpt>
      <trkpt lat="46.15328" lon="6.65233">
        <ele>1227</ele>
        <time>2021-09-17T11:25:00Z</time>
      </trkpt>
      <trkpt lat="46.15314" lon="6.65207">
        <ele>1230</ele>
        <time>2021-09-17T11:25:00Z</time>
      </trkpt>
      <trkpt lat="46.15313" lon="6.65167">
        <ele>1235</ele>
        <time>2021-09-17T11:25:00Z</time>
      </trkpt>
      <trkpt lat="46.15327" lon="6.65133">
        <ele>1238</ele>
        <time>2021-09-17T11:25:00Z</time>
      </trkpt>
      <trkpt lat="46.15328" lon="6.65099">
        <ele>1244</ele>
        <time>2021-09-17T11:25:00Z</time>
      </trkpt>
      <trkpt lat="46.15337" lon="6.6506">
        <ele>1253</ele>
        <time>2021-09-17T11:25:00Z</time>
      </trkpt>
      <trkpt lat="46.15313" lon="6.65048">
        <ele>1251</ele>
        <time>2021-09-17T11:25:00Z</time>
      </trkpt>
      <trkpt lat="46.15278" lon="6.65058">
        <ele>1245</ele>
        <time>2021-09-17T11:25:00Z</time>
      </trkpt>
      <trkpt lat="46.15243" lon="6.65032">
        <ele>1245</ele>
        <time>2021-09-17T11:25:00Z</time>
      </trkpt>
      <trkpt lat="46.15224" lon="6.65012">
        <ele>1244</ele>
        <time>2021-09-17T11:25:00Z</time>
      </trkpt>
      <trkpt lat="46.1521" lon="6.6498">
        <ele>1244</ele>
        <time>2021-09-17T11:25:00Z</time>
      </trkpt>
      <trkpt lat="46.15177" lon="6.64954">
        <ele>1243</ele>
        <time>2021-09-17T11:25:00Z</time>
      </trkpt>
      <trkpt lat="46.15154" lon="6.6494">
        <ele>1245</ele>
        <time>2021-09-17T11:25:00Z</time>
      </trkpt>
      <trkpt lat="46.15135" lon="6.64915">
        <ele>1248</ele>
        <time>2021-09-17T11:25:00Z</time>
      </trkpt>
      <trkpt lat="46.15115" lon="6.64896">
        <ele>1248</ele>
        <time>2021-09-17T11:25:00Z</time>
      </trkpt>
      <trkpt lat="46.15089" lon="6.6487">
        <ele>1248</ele>
        <time>2021-09-17T11:25:00Z</time>
      </trkpt>
      <trkpt lat="46.15067" lon="6.64845">
        <ele>1246</ele>
        <time>2021-09-17T11:25:00Z</time>
      </trkpt>
      <trkpt lat="46.1505" lon="6.6481">
        <ele>1247</ele>
        <time>2021-09-17T11:25:00Z</time>
      </trkpt>
      <trkpt lat="46.15036" lon="6.64777">
        <ele>1249</ele>
        <time>2021-09-17T11:25:00Z</time>
      </trkpt>
      <trkpt lat="46.15015" lon="6.64746">
        <ele>1248</ele>
        <time>2021-09-17T11:25:00Z</time>
      </trkpt>
      <trkpt lat="46.15" lon="6.6472">
        <ele>1248</ele>
        <time>2021-09-17T11:25:00Z</time>
      </trkpt>
      <trkpt lat="46.14977" lon="6.64684">
        <ele>1249</ele>
        <time>2021-09-17T11:25:00Z</time>
      </trkpt>
      <trkpt lat="46.14956" lon="6.64662">
        <ele>1250</ele>
        <time>2021-09-17T11:25:00Z</time>
      </trkpt>
      <trkpt lat="46.14942" lon="6.64634">
        <ele>1247</ele>
        <time>2021-09-17T11:25:00Z</time>
      </trkpt>
      <trkpt lat="46.14912" lon="6.6464">
        <ele>1244</ele>
        <time>2021-09-17T11:25:00Z</time>
      </trkpt>
      <trkpt lat="46.14898" lon="6.64598">
        <ele>1242</ele>
        <time>2021-09-17T11:25:00Z</time>
      </trkpt>
      <trkpt lat="46.14882" lon="6.64549">
        <ele>1241</ele>
        <time>2021-09-17T11:25:00Z</time>
      </trkpt>
      <trkpt lat="46.14864" lon="6.64503">
        <ele>1235</ele>
        <time>2021-09-17T11:25:00Z</time>
      </trkpt>
      <trkpt lat="46.14839" lon="6.64456">
        <ele>1230</ele>
        <time>2021-09-17T11:25:00Z</time>
      </trkpt>
      <trkpt lat="46.14814" lon="6.64429">
        <ele>1231</ele>
        <time>2021-09-17T11:25:00Z</time>
      </trkpt>
      <trkpt lat="46.14781" lon="6.6439">
        <ele>1230</ele>
        <time>2021-09-17T11:25:00Z</time>
      </trkpt>
      <trkpt lat="46.14751" lon="6.64378">
        <ele>1229</ele>
        <time>2021-09-17T11:25:00Z</time>
      </trkpt>
      <trkpt lat="46.14728" lon="6.6442">
        <ele>1220</ele>
        <time>2021-09-17T11:25:00Z</time>
      </trkpt>
      <trkpt lat="46.14686" lon="6.64411">
        <ele>1209</ele>
        <time>2021-09-17T11:25:00Z</time>
      </trkpt>
      <trkpt lat="46.14658" lon="6.64393">
        <ele>1203</ele>
        <time>2021-09-17T11:25:00Z</time>
      </trkpt>
      <trkpt lat="46.14635" lon="6.64382">
        <ele>1203</ele>
        <time>2021-09-17T11:25:00Z</time>
      </trkpt>
      <trkpt lat="46.14618" lon="6.64353">
        <ele>1203</ele>
        <time>2021-09-17T11:25:00Z</time>
      </trkpt>
      <trkpt lat="46.14603" lon="6.64328">
        <ele>1204</ele>
        <time>2021-09-17T11:25:00Z</time>
      </trkpt>
      <trkpt lat="46.14596" lon="6.64278">
        <ele>1206</ele>
        <time>2021-09-17T11:25:00Z</time>
      </trkpt>
      <trkpt lat="46.14587" lon="6.64231">
        <ele>1208</ele>
        <time>2021-09-17T11:25:00Z</time>
      </trkpt>
      <trkpt lat="46.14565" lon="6.64177">
        <ele>1211</ele>
        <time>2021-09-17T11:25:00Z</time>
      </trkpt>
      <trkpt lat="46.14561" lon="6.64125">
        <ele>1213</ele>
        <time>2021-09-17T11:25:00Z</time>
      </trkpt>
      <trkpt lat="46.14552" lon="6.6409">
        <ele>1212</ele>
        <time>2021-09-17T11:25:00Z</time>
      </trkpt>
      <trkpt lat="46.14543" lon="6.64051">
        <ele>1212</ele>
        <time>2021-09-17T11:25:00Z</time>
      </trkpt>
      <trkpt lat="46.1454" lon="6.64003">
        <ele>1224</ele>
        <time>2021-09-17T11:25:00Z</time>
      </trkpt>
      <trkpt lat="46.14534" lon="6.63971">
        <ele>1233</ele>
        <time>2021-09-17T11:25:00Z</time>
      </trkpt>
      <trkpt lat="46.14533" lon="6.63938">
        <ele>1236</ele>
        <time>2021-09-17T11:25:00Z</time>
      </trkpt>
      <trkpt lat="46.1455" lon="6.63964">
        <ele>1233</ele>
        <time>2021-09-17T11:25:00Z</time>
      </trkpt>
      <trkpt lat="46.14562" lon="6.63996">
        <ele>1237</ele>
        <time>2021-09-17T11:25:00Z</time>
      </trkpt>
      <trkpt lat="46.14575" lon="6.63936">
        <ele>1240</ele>
        <time>2021-09-17T11:25:00Z</time>
      </trkpt>
      <trkpt lat="46.14584" lon="6.63903">
        <ele>1241</ele>
        <time>2021-09-17T11:25:00Z</time>
      </trkpt>
      <trkpt lat="46.14585" lon="6.63844">
        <ele>1250</ele>
        <time>2021-09-17T11:25:00Z</time>
      </trkpt>
      <trkpt lat="46.14572" lon="6.6381">
        <ele>1250</ele>
        <time>2021-09-17T11:25:00Z</time>
      </trkpt>
      <trkpt lat="46.14558" lon="6.63774">
        <ele>1250</ele>
        <time>2021-09-17T11:25:00Z</time>
      </trkpt>
      <trkpt lat="46.14582" lon="6.63793">
        <ele>1254</ele>
        <time>2021-09-17T11:25:00Z</time>
      </trkpt>
      <trkpt lat="46.14605" lon="6.63818">
        <ele>1257</ele>
        <time>2021-09-17T11:25:00Z</time>
      </trkpt>
      <trkpt lat="46.14632" lon="6.6383">
        <ele>1260</ele>
        <time>2021-09-17T11:25:00Z</time>
      </trkpt>
      <trkpt lat="46.14605" lon="6.63768">
        <ele>1263</ele>
        <time>2021-09-17T11:25:00Z</time>
      </trkpt>
      <trkpt lat="46.14591" lon="6.63727">
        <ele>1266</ele>
        <time>2021-09-17T11:25:00Z</time>
      </trkpt>
      <trkpt lat="46.14585" lon="6.63691">
        <ele>1273</ele>
        <time>2021-09-17T11:25:00Z</time>
      </trkpt>
      <trkpt lat="46.14571" lon="6.6364">
        <ele>1280</ele>
        <time>2021-09-17T11:25:00Z</time>
      </trkpt>
      <trkpt lat="46.14559" lon="6.6359">
        <ele>1280</ele>
        <time>2021-09-17T11:25:00Z</time>
      </trkpt>
      <trkpt lat="46.14549" lon="6.63554">
        <ele>1281</ele>
        <time>2021-09-17T11:25:00Z</time>
      </trkpt>
      <trkpt lat="46.14543" lon="6.63507">
        <ele>1283</ele>
        <time>2021-09-17T11:25:00Z</time>
      </trkpt>
      <trkpt lat="46.1453" lon="6.63472">
        <ele>1286</ele>
        <time>2021-09-17T11:25:00Z</time>
      </trkpt>
      <trkpt lat="46.14543" lon="6.6342">
        <ele>1290</ele>
        <time>2021-09-17T11:25:00Z</time>
      </trkpt>
      <trkpt lat="46.1456" lon="6.63378">
        <ele>1315</ele>
        <time>2021-09-17T11:25:00Z</time>
      </trkpt>
      <trkpt lat="46.14564" lon="6.63326">
        <ele>1317</ele>
        <time>2021-09-17T11:25:00Z</time>
      </trkpt>
      <trkpt lat="46.14556" lon="6.6329">
        <ele>1317</ele>
        <time>2021-09-17T11:25:00Z</time>
      </trkpt>
      <trkpt lat="46.14545" lon="6.6326">
        <ele>1318</ele>
        <time>2021-09-17T11:25:00Z</time>
      </trkpt>
      <trkpt lat="46.14525" lon="6.63212">
        <ele>1322</ele>
        <time>2021-09-17T11:25:00Z</time>
      </trkpt>
      <trkpt lat="46.14521" lon="6.63159">
        <ele>1330</ele>
        <time>2021-09-17T11:25:00Z</time>
      </trkpt>
      <trkpt lat="46.14528" lon="6.63098">
        <ele>1337</ele>
        <time>2021-09-17T11:25:00Z</time>
      </trkpt>
      <trkpt lat="46.14519" lon="6.63058">
        <ele>1342</ele>
        <time>2021-09-17T11:25:00Z</time>
      </trkpt>
      <trkpt lat="46.14508" lon="6.62994">
        <ele>1355</ele>
        <time>2021-09-17T11:25:00Z</time>
      </trkpt>
      <trkpt lat="46.14507" lon="6.6293">
        <ele>1357</ele>
        <time>2021-09-17T11:25:00Z</time>
      </trkpt>
      <trkpt lat="46.14518" lon="6.62873">
        <ele>1357</ele>
        <time>2021-09-17T11:25:00Z</time>
      </trkpt>
      <trkpt lat="46.14532" lon="6.62847">
        <ele>1365</ele>
        <time>2021-09-17T11:25:00Z</time>
      </trkpt>
      <trkpt lat="46.14551" lon="6.62815">
        <ele>1372</ele>
        <time>2021-09-17T11:25:00Z</time>
      </trkpt>
      <trkpt lat="46.14554" lon="6.62781">
        <ele>1376</ele>
        <time>2021-09-17T11:25:00Z</time>
      </trkpt>
      <trkpt lat="46.14567" lon="6.62724">
        <ele>1383</ele>
        <time>2021-09-17T11:25:00Z</time>
      </trkpt>
      <trkpt lat="46.14587" lon="6.62693">
        <ele>1386</ele>
        <time>2021-09-17T11:25:00Z</time>
      </trkpt>
      <trkpt lat="46.14599" lon="6.62655">
        <ele>1386</ele>
        <time>2021-09-17T11:25:00Z</time>
      </trkpt>
      <trkpt lat="46.14615" lon="6.62627">
        <ele>1385</ele>
        <time>2021-09-17T11:25:00Z</time>
      </trkpt>
      <trkpt lat="46.14639" lon="6.62606">
        <ele>1387</ele>
        <time>2021-09-17T11:25:00Z</time>
      </trkpt>
      <trkpt lat="46.14674" lon="6.62601">
        <ele>1389</ele>
        <time>2021-09-17T11:25:00Z</time>
      </trkpt>
      <trkpt lat="46.14702" lon="6.62597">
        <ele>1393</ele>
        <time>2021-09-17T11:25:00Z</time>
      </trkpt>
      <trkpt lat="46.14692" lon="6.62563">
        <ele>1398</ele>
        <time>2021-09-17T11:25:00Z</time>
      </trkpt>
      <trkpt lat="46.14704" lon="6.62515">
        <ele>1398</ele>
        <time>2021-09-17T11:25:00Z</time>
      </trkpt>
      <trkpt lat="46.14712" lon="6.62476">
        <ele>1394</ele>
        <time>2021-09-17T11:25:00Z</time>
      </trkpt>
      <trkpt lat="46.14719" lon="6.62424">
        <ele>1394</ele>
        <time>2021-09-17T11:25:00Z</time>
      </trkpt>
      <trkpt lat="46.14717" lon="6.62375">
        <ele>1394</ele>
        <time>2021-09-17T11:25:00Z</time>
      </trkpt>
      <trkpt lat="46.14697" lon="6.62335">
        <ele>1389</ele>
        <time>2021-09-17T11:25:00Z</time>
      </trkpt>
      <trkpt lat="46.14656" lon="6.62293">
        <ele>1380</ele>
        <time>2021-09-17T11:25:00Z</time>
      </trkpt>
      <trkpt lat="46.14641" lon="6.62259">
        <ele>1372</ele>
        <time>2021-09-17T11:25:00Z</time>
      </trkpt>
      <trkpt lat="46.14672" lon="6.62241">
        <ele>1372</ele>
        <time>2021-09-17T11:25:00Z</time>
      </trkpt>
      <trkpt lat="46.14702" lon="6.62237">
        <ele>1355</ele>
        <time>2021-09-17T11:25:00Z</time>
      </trkpt>
      <trkpt lat="46.14727" lon="6.62199">
        <ele>1354</ele>
        <time>2021-09-17T11:25:00Z</time>
      </trkpt>
      <trkpt lat="46.14755" lon="6.62193">
        <ele>1352</ele>
        <time>2021-09-17T11:25:00Z</time>
      </trkpt>
      <trkpt lat="46.14785" lon="6.62197">
        <ele>1348</ele>
        <time>2021-09-17T11:25:00Z</time>
      </trkpt>
      <trkpt lat="46.14807" lon="6.62181">
        <ele>1345</ele>
        <time>2021-09-17T11:25:00Z</time>
      </trkpt>
      <trkpt lat="46.1483" lon="6.62184">
        <ele>1343</ele>
        <time>2021-09-17T11:25:00Z</time>
      </trkpt>
      <trkpt lat="46.14851" lon="6.62206">
        <ele>1342</ele>
        <time>2021-09-17T11:25:00Z</time>
      </trkpt>
      <trkpt lat="46.14882" lon="6.62213">
        <ele>1341</ele>
        <time>2021-09-17T11:25:00Z</time>
      </trkpt>
      <trkpt lat="46.14911" lon="6.62227">
        <ele>1334</ele>
        <time>2021-09-17T11:25:00Z</time>
      </trkpt>
      <trkpt lat="46.14945" lon="6.62222">
        <ele>1330</ele>
        <time>2021-09-17T11:25:00Z</time>
      </trkpt>
      <trkpt lat="46.1497" lon="6.62223">
        <ele>1321</ele>
        <time>2021-09-17T11:25:00Z</time>
      </trkpt>
      <trkpt lat="46.14998" lon="6.62224">
        <ele>1321</ele>
        <time>2021-09-17T11:25:00Z</time>
      </trkpt>
      <trkpt lat="46.15029" lon="6.62211">
        <ele>1300</ele>
        <time>2021-09-17T11:25:00Z</time>
      </trkpt>
      <trkpt lat="46.15055" lon="6.62192">
        <ele>1292</ele>
        <time>2021-09-17T11:25:00Z</time>
      </trkpt>
      <trkpt lat="46.1508" lon="6.62178">
        <ele>1289</ele>
        <time>2021-09-17T11:25:00Z</time>
      </trkpt>
      <trkpt lat="46.15097" lon="6.62147">
        <ele>1286</ele>
        <time>2021-09-17T11:25:00Z</time>
      </trkpt>
      <trkpt lat="46.15133" lon="6.62138">
        <ele>1282</ele>
        <time>2021-09-17T11:25:00Z</time>
      </trkpt>
      <trkpt lat="46.15167" lon="6.62136">
        <ele>1282</ele>
        <time>2021-09-17T11:25:00Z</time>
      </trkpt>
      <trkpt lat="46.15187" lon="6.62118">
        <ele>1272</ele>
        <time>2021-09-17T11:25:00Z</time>
      </trkpt>
      <trkpt lat="46.15205" lon="6.62092">
        <ele>1266</ele>
        <time>2021-09-17T11:25:00Z</time>
      </trkpt>
      <trkpt lat="46.15226" lon="6.62079">
        <ele>1254</ele>
        <time>2021-09-17T11:25:00Z</time>
      </trkpt>
      <trkpt lat="46.15261" lon="6.62057">
        <ele>1251</ele>
        <time>2021-09-17T11:25:00Z</time>
      </trkpt>
      <trkpt lat="46.15286" lon="6.62047">
        <ele>1248</ele>
        <time>2021-09-17T11:25:00Z</time>
      </trkpt>
      <trkpt lat="46.15311" lon="6.62042">
        <ele>1248</ele>
        <time>2021-09-17T11:25:00Z</time>
      </trkpt>
      <trkpt lat="46.1533" lon="6.6202">
        <ele>1248</ele>
        <time>2021-09-17T11:25:00Z</time>
      </trkpt>
      <trkpt lat="46.15355" lon="6.61998">
        <ele>1244</ele>
        <time>2021-09-17T11:25:00Z</time>
      </trkpt>
      <trkpt lat="46.15384" lon="6.61997">
        <ele>1244</ele>
        <time>2021-09-17T11:25:00Z</time>
      </trkpt>
      <trkpt lat="46.15407" lon="6.61975">
        <ele>1246</ele>
        <time>2021-09-17T11:25:00Z</time>
      </trkpt>
      <trkpt lat="46.15432" lon="6.61961">
        <ele>1239</ele>
        <time>2021-09-17T11:25:00Z</time>
      </trkpt>
      <trkpt lat="46.15461" lon="6.61944">
        <ele>1232</ele>
        <time>2021-09-17T11:25:00Z</time>
      </trkpt>
      <trkpt lat="46.15483" lon="6.61929">
        <ele>1221</ele>
        <time>2021-09-17T11:25:00Z</time>
      </trkpt>
      <trkpt lat="46.15508" lon="6.6192">
        <ele>1218</ele>
        <time>2021-09-17T11:25:00Z</time>
      </trkpt>
      <trkpt lat="46.15534" lon="6.61906">
        <ele>1203</ele>
        <time>2021-09-17T11:25:00Z</time>
      </trkpt>
      <trkpt lat="46.15557" lon="6.61899">
        <ele>1200</ele>
        <time>2021-09-17T11:25:00Z</time>
      </trkpt>
      <trkpt lat="46.15587" lon="6.61885">
        <ele>1186</ele>
        <time>2021-09-17T11:25:00Z</time>
      </trkpt>
      <trkpt lat="46.15618" lon="6.6188">
        <ele>1185</ele>
        <time>2021-09-17T11:25:00Z</time>
      </trkpt>
      <trkpt lat="46.1565" lon="6.61868">
        <ele>1183</ele>
        <time>2021-09-17T11:25:00Z</time>
      </trkpt>
      <trkpt lat="46.15666" lon="6.61841">
        <ele>1183</ele>
        <time>2021-09-17T11:25:00Z</time>
      </trkpt>
      <trkpt lat="46.1565" lon="6.61812">
        <ele>1184</ele>
        <time>2021-09-17T11:25:00Z</time>
      </trkpt>
      <trkpt lat="46.15628" lon="6.61795">
        <ele>1188</ele>
        <time>2021-09-17T11:25:00Z</time>
      </trkpt>
      <trkpt lat="46.15603" lon="6.61774">
        <ele>1188</ele>
        <time>2021-09-17T11:25:00Z</time>
      </trkpt>
      <trkpt lat="46.15637" lon="6.61755">
        <ele>1188</ele>
        <time>2021-09-17T11:25:00Z</time>
      </trkpt>
      <trkpt lat="46.15661" lon="6.6175">
        <ele>1192</ele>
        <time>2021-09-17T11:25:00Z</time>
      </trkpt>
      <trkpt lat="46.15689" lon="6.61749">
        <ele>1192</ele>
        <time>2021-09-17T11:25:00Z</time>
      </trkpt>
      <trkpt lat="46.15717" lon="6.61759">
        <ele>1197</ele>
        <time>2021-09-17T11:25:00Z</time>
      </trkpt>
      <trkpt lat="46.1574" lon="6.61768">
        <ele>1197</ele>
        <time>2021-09-17T11:25:00Z</time>
      </trkpt>
      <trkpt lat="46.15763" lon="6.61779">
        <ele>1198</ele>
        <time>2021-09-17T11:25:00Z</time>
      </trkpt>
      <trkpt lat="46.15793" lon="6.61785">
        <ele>1199</ele>
        <time>2021-09-17T11:25:00Z</time>
      </trkpt>
      <trkpt lat="46.1582" lon="6.61798">
        <ele>1203</ele>
        <time>2021-09-17T11:25:00Z</time>
      </trkpt>
      <trkpt lat="46.15851" lon="6.61809">
        <ele>1207</ele>
        <time>2021-09-17T11:25:00Z</time>
      </trkpt>
      <trkpt lat="46.1589" lon="6.6183">
        <ele>1199</ele>
        <time>2021-09-17T11:25:00Z</time>
      </trkpt>
      <trkpt lat="46.15918" lon="6.61836">
        <ele>1199</ele>
        <time>2021-09-17T11:25:00Z</time>
      </trkpt>
      <trkpt lat="46.15941" lon="6.61806">
        <ele>1199</ele>
        <time>2021-09-17T11:25:00Z</time>
      </trkpt>
      <trkpt lat="46.15957" lon="6.61783">
        <ele>1207</ele>
        <time>2021-09-17T11:25:00Z</time>
      </trkpt>
      <trkpt lat="46.15982" lon="6.61778">
        <ele>1214</ele>
        <time>2021-09-17T11:25:00Z</time>
      </trkpt>
      <trkpt lat="46.16007" lon="6.61754">
        <ele>1226</ele>
        <time>2021-09-17T11:25:00Z</time>
      </trkpt>
      <trkpt lat="46.16021" lon="6.61728">
        <ele>1234</ele>
        <time>2021-09-17T11:25:00Z</time>
      </trkpt>
      <trkpt lat="46.16044" lon="6.61715">
        <ele>1239</ele>
        <time>2021-09-17T11:25:00Z</time>
      </trkpt>
      <trkpt lat="46.16073" lon="6.61711">
        <ele>1242</ele>
        <time>2021-09-17T11:25:00Z</time>
      </trkpt>
      <trkpt lat="46.16099" lon="6.61715">
        <ele>1242</ele>
        <time>2021-09-17T11:25:00Z</time>
      </trkpt>
      <trkpt lat="46.1612" lon="6.617">
        <ele>1251</ele>
        <time>2021-09-17T11:25:00Z</time>
      </trkpt>
      <trkpt lat="46.16138" lon="6.61677">
        <ele>1254</ele>
        <time>2021-09-17T11:25:00Z</time>
      </trkpt>
      <trkpt lat="46.16159" lon="6.61649">
        <ele>1257</ele>
        <time>2021-09-17T11:25:00Z</time>
      </trkpt>
      <trkpt lat="46.16183" lon="6.61628">
        <ele>1260</ele>
        <time>2021-09-17T11:25:00Z</time>
      </trkpt>
      <trkpt lat="46.16207" lon="6.61635">
        <ele>1268</ele>
        <time>2021-09-17T11:25:00Z</time>
      </trkpt>
      <trkpt lat="46.16229" lon="6.61647">
        <ele>1272</ele>
        <time>2021-09-17T11:25:00Z</time>
      </trkpt>
      <trkpt lat="46.16251" lon="6.61636">
        <ele>1277</ele>
        <time>2021-09-17T11:25:00Z</time>
      </trkpt>
      <trkpt lat="46.16245" lon="6.61602">
        <ele>1289</ele>
        <time>2021-09-17T11:25:00Z</time>
      </trkpt>
      <trkpt lat="46.16266" lon="6.61577">
        <ele>1297</ele>
        <time>2021-09-17T11:25:00Z</time>
      </trkpt>
      <trkpt lat="46.1626" lon="6.6154">
        <ele>1321</ele>
        <time>2021-09-17T11:25:00Z</time>
      </trkpt>
      <trkpt lat="46.16244" lon="6.61515">
        <ele>1323</ele>
        <time>2021-09-17T11:25:00Z</time>
      </trkpt>
      <trkpt lat="46.16221" lon="6.61476">
        <ele>1333</ele>
        <time>2021-09-17T11:25:00Z</time>
      </trkpt>
      <trkpt lat="46.16213" lon="6.61444">
        <ele>1340</ele>
        <time>2021-09-17T11:25:00Z</time>
      </trkpt>
      <trkpt lat="46.16235" lon="6.61437">
        <ele>1351</ele>
        <time>2021-09-17T11:25:00Z</time>
      </trkpt>
      <trkpt lat="46.16264" lon="6.61436">
        <ele>1354</ele>
        <time>2021-09-17T11:25:00Z</time>
      </trkpt>
      <trkpt lat="46.16264" lon="6.61402">
        <ele>1354</ele>
        <time>2021-09-17T11:25:00Z</time>
      </trkpt>
      <trkpt lat="46.16285" lon="6.61389">
        <ele>1372</ele>
        <time>2021-09-17T11:25:00Z</time>
      </trkpt>
      <trkpt lat="46.16307" lon="6.61375">
        <ele>1372</ele>
        <time>2021-09-17T11:25:00Z</time>
      </trkpt>
      <trkpt lat="46.1629" lon="6.61344">
        <ele>1403</ele>
        <time>2021-09-17T11:25:00Z</time>
      </trkpt>
      <trkpt lat="46.16271" lon="6.61321">
        <ele>1403</ele>
        <time>2021-09-17T11:25:00Z</time>
      </trkpt>
      <trkpt lat="46.16247" lon="6.61291">
        <ele>1404</ele>
        <time>2021-09-17T11:25:00Z</time>
      </trkpt>
      <trkpt lat="46.16225" lon="6.61262">
        <ele>1413</ele>
        <time>2021-09-17T11:25:00Z</time>
      </trkpt>
      <trkpt lat="46.16199" lon="6.61249">
        <ele>1414</ele>
        <time>2021-09-17T11:25:00Z</time>
      </trkpt>
      <trkpt lat="46.16206" lon="6.61218">
        <ele>1426</ele>
        <time>2021-09-17T11:25:00Z</time>
      </trkpt>
      <trkpt lat="46.16196" lon="6.61184">
        <ele>1444</ele>
        <time>2021-09-17T11:25:00Z</time>
      </trkpt>
      <trkpt lat="46.16191" lon="6.61125">
        <ele>1452</ele>
        <time>2021-09-17T11:25:00Z</time>
      </trkpt>
      <trkpt lat="46.16168" lon="6.61101">
        <ele>1454</ele>
        <time>2021-09-17T11:25:00Z</time>
      </trkpt>
      <trkpt lat="46.16145" lon="6.61087">
        <ele>1458</ele>
        <time>2021-09-17T11:25:00Z</time>
      </trkpt>
      <trkpt lat="46.16125" lon="6.61065">
        <ele>1459</ele>
        <time>2021-09-17T11:25:00Z</time>
      </trkpt>
      <trkpt lat="46.16119" lon="6.61024">
        <ele>1460</ele>
        <time>2021-09-17T11:25:00Z</time>
      </trkpt>
      <trkpt lat="46.16107" lon="6.60991">
        <ele>1463</ele>
        <time>2021-09-17T11:25:00Z</time>
      </trkpt>
      <trkpt lat="46.16098" lon="6.60958">
        <ele>1463</ele>
        <time>2021-09-17T11:25:00Z</time>
      </trkpt>
      <trkpt lat="46.16071" lon="6.60939">
        <ele>1470</ele>
        <time>2021-09-17T11:25:00Z</time>
      </trkpt>
      <trkpt lat="46.16048" lon="6.60926">
        <ele>1485</ele>
        <time>2021-09-17T11:25:00Z</time>
      </trkpt>
      <trkpt lat="46.16022" lon="6.60922">
        <ele>1485</ele>
        <time>2021-09-17T11:25:00Z</time>
      </trkpt>
      <trkpt lat="46.15999" lon="6.60923">
        <ele>1483</ele>
        <time>2021-09-17T11:25:00Z</time>
      </trkpt>
      <trkpt lat="46.15977" lon="6.60904">
        <ele>1494</ele>
        <time>2021-09-17T11:25:00Z</time>
      </trkpt>
      <trkpt lat="46.15972" lon="6.60867">
        <ele>1496</ele>
        <time>2021-09-17T11:25:00Z</time>
      </trkpt>
      <trkpt lat="46.15989" lon="6.60835">
        <ele>1500</ele>
        <time>2021-09-17T11:25:00Z</time>
      </trkpt>
      <trkpt lat="46.16016" lon="6.60794">
        <ele>1503</ele>
        <time>2021-09-17T11:25:00Z</time>
      </trkpt>
      <trkpt lat="46.16052" lon="6.60775">
        <ele>1506</ele>
        <time>2021-09-17T11:25:00Z</time>
      </trkpt>
      <trkpt lat="46.16072" lon="6.60759">
        <ele>1507</ele>
        <time>2021-09-17T11:25:00Z</time>
      </trkpt>
      <trkpt lat="46.16098" lon="6.6074">
        <ele>1508</ele>
        <time>2021-09-17T11:25:00Z</time>
      </trkpt>
      <trkpt lat="46.16113" lon="6.60715">
        <ele>1511</ele>
        <time>2021-09-17T11:25:00Z</time>
      </trkpt>
      <trkpt lat="46.1614" lon="6.60699">
        <ele>1513</ele>
        <time>2021-09-17T11:25:00Z</time>
      </trkpt>
      <trkpt lat="46.16162" lon="6.60713">
        <ele>1515</ele>
        <time>2021-09-17T11:25:00Z</time>
      </trkpt>
      <trkpt lat="46.16185" lon="6.6074">
        <ele>1517</ele>
        <time>2021-09-17T11:25:00Z</time>
      </trkpt>
      <trkpt lat="46.16207" lon="6.60749">
        <ele>1519</ele>
        <time>2021-09-17T11:25:00Z</time>
      </trkpt>
      <trkpt lat="46.16232" lon="6.60735">
        <ele>1528</ele>
        <time>2021-09-17T11:25:00Z</time>
      </trkpt>
      <trkpt lat="46.16243" lon="6.60706">
        <ele>1534</ele>
        <time>2021-09-17T11:25:00Z</time>
      </trkpt>
      <trkpt lat="46.16221" lon="6.60678">
        <ele>1540</ele>
        <time>2021-09-17T11:25:00Z</time>
      </trkpt>
      <trkpt lat="46.16195" lon="6.60638">
        <ele>1542</ele>
        <time>2021-09-17T11:25:00Z</time>
      </trkpt>
      <trkpt lat="46.16181" lon="6.60586">
        <ele>1544</ele>
        <time>2021-09-17T11:25:00Z</time>
      </trkpt>
      <trkpt lat="46.16166" lon="6.60557">
        <ele>1550</ele>
        <time>2021-09-17T11:25:00Z</time>
      </trkpt>
      <trkpt lat="46.16145" lon="6.60528">
        <ele>1551</ele>
        <time>2021-09-17T11:25:00Z</time>
      </trkpt>
      <trkpt lat="46.16108" lon="6.60525">
        <ele>1550</ele>
        <time>2021-09-17T11:25:00Z</time>
      </trkpt>
      <trkpt lat="46.16077" lon="6.60505">
        <ele>1558</ele>
        <time>2021-09-17T11:25:00Z</time>
      </trkpt>
      <trkpt lat="46.16054" lon="6.60488">
        <ele>1557</ele>
        <time>2021-09-17T11:25:00Z</time>
      </trkpt>
      <trkpt lat="46.16027" lon="6.60494">
        <ele>1561</ele>
        <time>2021-09-17T11:25:00Z</time>
      </trkpt>
      <trkpt lat="46.16008" lon="6.60514">
        <ele>1565</ele>
        <time>2021-09-17T11:25:00Z</time>
      </trkpt>
      <trkpt lat="46.15994" lon="6.60483">
        <ele>1565</ele>
        <time>2021-09-17T11:25:00Z</time>
      </trkpt>
      <trkpt lat="46.15985" lon="6.60444">
        <ele>1586</ele>
        <time>2021-09-17T11:25:00Z</time>
      </trkpt>
      <trkpt lat="46.15997" lon="6.60409">
        <ele>1598</ele>
        <time>2021-09-17T11:25:00Z</time>
      </trkpt>
      <trkpt lat="46.16021" lon="6.604">
        <ele>1598</ele>
        <time>2021-09-17T11:25:00Z</time>
      </trkpt>
      <trkpt lat="46.15997" lon="6.60379">
        <ele>1598</ele>
        <time>2021-09-17T11:25:00Z</time>
      </trkpt>
      <trkpt lat="46.15975" lon="6.6037">
        <ele>1595</ele>
        <time>2021-09-17T11:25:00Z</time>
      </trkpt>
      <trkpt lat="46.15966" lon="6.60327">
        <ele>1595</ele>
        <time>2021-09-17T11:25:00Z</time>
      </trkpt>
      <trkpt lat="46.15953" lon="6.60292">
        <ele>1586</ele>
        <time>2021-09-17T11:25:00Z</time>
      </trkpt>
      <trkpt lat="46.15942" lon="6.60261">
        <ele>1581</ele>
        <time>2021-09-17T11:25:00Z</time>
      </trkpt>
      <trkpt lat="46.15952" lon="6.60223">
        <ele>1581</ele>
        <time>2021-09-17T11:25:00Z</time>
      </trkpt>
      <trkpt lat="46.1593" lon="6.60205">
        <ele>1555</ele>
        <time>2021-09-17T11:25:00Z</time>
      </trkpt>
      <trkpt lat="46.15895" lon="6.60203">
        <ele>1554</ele>
        <time>2021-09-17T11:25:00Z</time>
      </trkpt>
      <trkpt lat="46.15906" lon="6.60169">
        <ele>1550</ele>
        <time>2021-09-17T11:25:00Z</time>
      </trkpt>
      <trkpt lat="46.15917" lon="6.6014">
        <ele>1548</ele>
        <time>2021-09-17T11:25:00Z</time>
      </trkpt>
      <trkpt lat="46.15902" lon="6.60111">
        <ele>1537</ele>
        <time>2021-09-17T11:25:00Z</time>
      </trkpt>
      <trkpt lat="46.15875" lon="6.60109">
        <ele>1537</ele>
        <time>2021-09-17T11:25:00Z</time>
      </trkpt>
      <trkpt lat="46.15851" lon="6.60108">
        <ele>1530</ele>
        <time>2021-09-17T11:25:00Z</time>
      </trkpt>
      <trkpt lat="46.15856" lon="6.60069">
        <ele>1502</ele>
        <time>2021-09-17T11:25:00Z</time>
      </trkpt>
      <trkpt lat="46.15869" lon="6.60041">
        <ele>1481</ele>
        <time>2021-09-17T11:25:00Z</time>
      </trkpt>
      <trkpt lat="46.15853" lon="6.60012">
        <ele>1473</ele>
        <time>2021-09-17T11:25:00Z</time>
      </trkpt>
      <trkpt lat="46.15851" lon="6.59972">
        <ele>1470</ele>
        <time>2021-09-17T11:25:00Z</time>
      </trkpt>
      <trkpt lat="46.15829" lon="6.59947">
        <ele>1466</ele>
        <time>2021-09-17T11:25:00Z</time>
      </trkpt>
      <trkpt lat="46.15829" lon="6.59902">
        <ele>1455</ele>
        <time>2021-09-17T11:25:00Z</time>
      </trkpt>
      <trkpt lat="46.1583" lon="6.59861">
        <ele>1453</ele>
        <time>2021-09-17T11:25:00Z</time>
      </trkpt>
      <trkpt lat="46.15828" lon="6.59822">
        <ele>1446</ele>
        <time>2021-09-17T11:25:00Z</time>
      </trkpt>
      <trkpt lat="46.1583" lon="6.59771">
        <ele>1440</ele>
        <time>2021-09-17T11:25:00Z</time>
      </trkpt>
      <trkpt lat="46.15828" lon="6.59737">
        <ele>1439</ele>
        <time>2021-09-17T11:25:00Z</time>
      </trkpt>
      <trkpt lat="46.1581" lon="6.59712">
        <ele>1431</ele>
        <time>2021-09-17T11:25:00Z</time>
      </trkpt>
      <trkpt lat="46.15808" lon="6.59678">
        <ele>1423</ele>
        <time>2021-09-17T11:25:00Z</time>
      </trkpt>
      <trkpt lat="46.15807" lon="6.59642">
        <ele>1410</ele>
        <time>2021-09-17T11:25:00Z</time>
      </trkpt>
      <trkpt lat="46.15798" lon="6.59607">
        <ele>1395</ele>
        <time>2021-09-17T11:25:00Z</time>
      </trkpt>
      <trkpt lat="46.15799" lon="6.59574">
        <ele>1388</ele>
        <time>2021-09-17T11:25:00Z</time>
      </trkpt>
      <trkpt lat="46.15821" lon="6.59557">
        <ele>1377</ele>
        <time>2021-09-17T11:25:00Z</time>
      </trkpt>
      <trkpt lat="46.15835" lon="6.59527">
        <ele>1362</ele>
        <time>2021-09-17T11:25:00Z</time>
      </trkpt>
      <trkpt lat="46.15845" lon="6.59496">
        <ele>1352</ele>
        <time>2021-09-17T11:25:00Z</time>
      </trkpt>
      <trkpt lat="46.1586" lon="6.5946">
        <ele>1348</ele>
        <time>2021-09-17T11:25:00Z</time>
      </trkpt>
      <trkpt lat="46.15843" lon="6.59436">
        <ele>1343</ele>
        <time>2021-09-17T11:25:00Z</time>
      </trkpt>
      <trkpt lat="46.15823" lon="6.59417">
        <ele>1343</ele>
        <time>2021-09-17T11:25:00Z</time>
      </trkpt>
      <trkpt lat="46.15795" lon="6.59417">
        <ele>1334</ele>
        <time>2021-09-17T11:25:00Z</time>
      </trkpt>
      <trkpt lat="46.15799" lon="6.59379">
        <ele>1316</ele>
        <time>2021-09-17T11:25:00Z</time>
      </trkpt>
      <trkpt lat="46.15804" lon="6.59344">
        <ele>1318</ele>
        <time>2021-09-17T11:25:00Z</time>
      </trkpt>
      <trkpt lat="46.15818" lon="6.59313">
        <ele>1320</ele>
        <time>2021-09-17T11:25:00Z</time>
      </trkpt>
      <trkpt lat="46.15839" lon="6.5927">
        <ele>1322</ele>
        <time>2021-09-17T11:25:00Z</time>
      </trkpt>
      <trkpt lat="46.15853" lon="6.59233">
        <ele>1325</ele>
        <time>2021-09-17T11:25:00Z</time>
      </trkpt>
      <trkpt lat="46.15865" lon="6.59202">
        <ele>1323</ele>
        <time>2021-09-17T11:25:00Z</time>
      </trkpt>
      <trkpt lat="46.15892" lon="6.59173">
        <ele>1321</ele>
        <time>2021-09-17T11:25:00Z</time>
      </trkpt>
      <trkpt lat="46.15909" lon="6.59151">
        <ele>1328</ele>
        <time>2021-09-17T11:25:00Z</time>
      </trkpt>
      <trkpt lat="46.15929" lon="6.59136">
        <ele>1335</ele>
        <time>2021-09-17T11:25:00Z</time>
      </trkpt>
      <trkpt lat="46.15943" lon="6.59092">
        <ele>1332</ele>
        <time>2021-09-17T11:25:00Z</time>
      </trkpt>
      <trkpt lat="46.15958" lon="6.59065">
        <ele>1329</ele>
        <time>2021-09-17T11:25:00Z</time>
      </trkpt>
      <trkpt lat="46.15976" lon="6.59044">
        <ele>1329</ele>
        <time>2021-09-17T11:25:00Z</time>
      </trkpt>
      <trkpt lat="46.15997" lon="6.59028">
        <ele>1333</ele>
        <time>2021-09-17T11:25:00Z</time>
      </trkpt>
      <trkpt lat="46.16024" lon="6.5901">
        <ele>1333</ele>
        <time>2021-09-17T11:25:00Z</time>
      </trkpt>
      <trkpt lat="46.16048" lon="6.5899">
        <ele>1333</ele>
        <time>2021-09-17T11:25:00Z</time>
      </trkpt>
      <trkpt lat="46.16068" lon="6.58969">
        <ele>1334</ele>
        <time>2021-09-17T11:25:00Z</time>
      </trkpt>
      <trkpt lat="46.16086" lon="6.58937">
        <ele>1339</ele>
        <time>2021-09-17T11:25:00Z</time>
      </trkpt>
      <trkpt lat="46.16104" lon="6.58915">
        <ele>1342</ele>
        <time>2021-09-17T11:25:00Z</time>
      </trkpt>
      <trkpt lat="46.16129" lon="6.58906">
        <ele>1350</ele>
        <time>2021-09-17T11:25:00Z</time>
      </trkpt>
      <trkpt lat="46.16158" lon="6.58902">
        <ele>1357</ele>
        <time>2021-09-17T11:25:00Z</time>
      </trkpt>
      <trkpt lat="46.16182" lon="6.58885">
        <ele>1359</ele>
        <time>2021-09-17T11:25:00Z</time>
      </trkpt>
      <trkpt lat="46.1622" lon="6.58875">
        <ele>1362</ele>
        <time>2021-09-17T11:25:00Z</time>
      </trkpt>
      <trkpt lat="46.16254" lon="6.58879">
        <ele>1362</ele>
        <time>2021-09-17T11:25:00Z</time>
      </trkpt>
      <trkpt lat="46.163" lon="6.58881">
        <ele>1371</ele>
        <time>2021-09-17T11:25:00Z</time>
      </trkpt>
      <trkpt lat="46.16322" lon="6.58869">
        <ele>1377</ele>
        <time>2021-09-17T11:25:00Z</time>
      </trkpt>
      <trkpt lat="46.16354" lon="6.58842">
        <ele>1383</ele>
        <time>2021-09-17T11:25:00Z</time>
      </trkpt>
      <trkpt lat="46.16375" lon="6.58857">
        <ele>1383</ele>
        <time>2021-09-17T11:25:00Z</time>
      </trkpt>
      <trkpt lat="46.16402" lon="6.58862">
        <ele>1391</ele>
        <time>2021-09-17T11:25:00Z</time>
      </trkpt>
      <trkpt lat="46.16426" lon="6.58863">
        <ele>1392</ele>
        <time>2021-09-17T11:25:00Z</time>
      </trkpt>
      <trkpt lat="46.16455" lon="6.58862">
        <ele>1397</ele>
        <time>2021-09-17T11:25:00Z</time>
      </trkpt>
      <trkpt lat="46.16492" lon="6.58861">
        <ele>1398</ele>
        <time>2021-09-17T11:25:00Z</time>
      </trkpt>
      <trkpt lat="46.16522" lon="6.58844">
        <ele>1407</ele>
        <time>2021-09-17T11:25:00Z</time>
      </trkpt>
      <trkpt lat="46.16535" lon="6.58813">
        <ele>1411</ele>
        <time>2021-09-17T11:25:00Z</time>
      </trkpt>
      <trkpt lat="46.16562" lon="6.58795">
        <ele>1415</ele>
        <time>2021-09-17T11:25:00Z</time>
      </trkpt>
      <trkpt lat="46.1658" lon="6.58768">
        <ele>1421</ele>
        <time>2021-09-17T11:25:00Z</time>
      </trkpt>
      <trkpt lat="46.16606" lon="6.5877">
        <ele>1423</ele>
        <time>2021-09-17T11:25:00Z</time>
      </trkpt>
      <trkpt lat="46.16626" lon="6.58755">
        <ele>1426</ele>
        <time>2021-09-17T11:25:00Z</time>
      </trkpt>
      <trkpt lat="46.16636" lon="6.58722">
        <ele>1430</ele>
        <time>2021-09-17T11:25:00Z</time>
      </trkpt>
      <trkpt lat="46.16645" lon="6.58688">
        <ele>1435</ele>
        <time>2021-09-17T11:25:00Z</time>
      </trkpt>
      <trkpt lat="46.16649" lon="6.58656">
        <ele>1441</ele>
        <time>2021-09-17T11:25:00Z</time>
      </trkpt>
      <trkpt lat="46.16657" lon="6.58618">
        <ele>1441</ele>
        <time>2021-09-17T11:25:00Z</time>
      </trkpt>
      <trkpt lat="46.16682" lon="6.58599">
        <ele>1442</ele>
        <time>2021-09-17T11:25:00Z</time>
      </trkpt>
      <trkpt lat="46.16707" lon="6.58599">
        <ele>1440</ele>
        <time>2021-09-17T11:25:00Z</time>
      </trkpt>
      <trkpt lat="46.16732" lon="6.58596">
        <ele>1441</ele>
        <time>2021-09-17T11:25:00Z</time>
      </trkpt>
      <trkpt lat="46.16736" lon="6.58555">
        <ele>1454</ele>
        <time>2021-09-17T11:25:00Z</time>
      </trkpt>
      <trkpt lat="46.16726" lon="6.58511">
        <ele>1466</ele>
        <time>2021-09-17T11:25:00Z</time>
      </trkpt>
      <trkpt lat="46.16709" lon="6.58482">
        <ele>1471</ele>
        <time>2021-09-17T11:25:00Z</time>
      </trkpt>
      <trkpt lat="46.16689" lon="6.58457">
        <ele>1471</ele>
        <time>2021-09-17T11:25:00Z</time>
      </trkpt>
      <trkpt lat="46.16676" lon="6.58414">
        <ele>1483</ele>
        <time>2021-09-17T11:25:00Z</time>
      </trkpt>
      <trkpt lat="46.16652" lon="6.58413">
        <ele>1485</ele>
        <time>2021-09-17T11:25:00Z</time>
      </trkpt>
      <trkpt lat="46.16626" lon="6.58404">
        <ele>1485</ele>
        <time>2021-09-17T11:25:00Z</time>
      </trkpt>
      <trkpt lat="46.16598" lon="6.58389">
        <ele>1497</ele>
        <time>2021-09-17T11:25:00Z</time>
      </trkpt>
      <trkpt lat="46.16578" lon="6.58371">
        <ele>1497</ele>
        <time>2021-09-17T11:25:00Z</time>
      </trkpt>
      <trkpt lat="46.16563" lon="6.58346">
        <ele>1500</ele>
        <time>2021-09-17T11:25:00Z</time>
      </trkpt>
      <trkpt lat="46.16545" lon="6.58305">
        <ele>1500</ele>
        <time>2021-09-17T11:25:00Z</time>
      </trkpt>
      <trkpt lat="46.16554" lon="6.58252">
        <ele>1504</ele>
        <time>2021-09-17T11:25:00Z</time>
      </trkpt>
      <trkpt lat="46.16544" lon="6.58221">
        <ele>1505</ele>
        <time>2021-09-17T11:25:00Z</time>
      </trkpt>
      <trkpt lat="46.16538" lon="6.58175">
        <ele>1503</ele>
        <time>2021-09-17T11:25:00Z</time>
      </trkpt>
      <trkpt lat="46.165" lon="6.58131">
        <ele>1506</ele>
        <time>2021-09-17T11:25:00Z</time>
      </trkpt>
      <trkpt lat="46.16488" lon="6.58103">
        <ele>1514</ele>
        <time>2021-09-17T11:25:00Z</time>
      </trkpt>
      <trkpt lat="46.1648" lon="6.5804">
        <ele>1524</ele>
        <time>2021-09-17T11:25:00Z</time>
      </trkpt>
      <trkpt lat="46.16492" lon="6.58004">
        <ele>1527</ele>
        <time>2021-09-17T11:25:00Z</time>
      </trkpt>
      <trkpt lat="46.16522" lon="6.57996">
        <ele>1530</ele>
        <time>2021-09-17T11:25:00Z</time>
      </trkpt>
      <trkpt lat="46.16531" lon="6.57961">
        <ele>1530</ele>
        <time>2021-09-17T11:25:00Z</time>
      </trkpt>
      <trkpt lat="46.16506" lon="6.57896">
        <ele>1540</ele>
        <time>2021-09-17T11:25:00Z</time>
      </trkpt>
      <trkpt lat="46.16495" lon="6.57867">
        <ele>1544</ele>
        <time>2021-09-17T11:25:00Z</time>
      </trkpt>
      <trkpt lat="46.16481" lon="6.57827">
        <ele>1545</ele>
        <time>2021-09-17T11:25:00Z</time>
      </trkpt>
      <trkpt lat="46.16459" lon="6.57797">
        <ele>1546</ele>
        <time>2021-09-17T11:25:00Z</time>
      </trkpt>
      <trkpt lat="46.16437" lon="6.57775">
        <ele>1549</ele>
        <time>2021-09-17T11:25:00Z</time>
      </trkpt>
      <trkpt lat="46.16413" lon="6.57766">
        <ele>1553</ele>
        <time>2021-09-17T11:25:00Z</time>
      </trkpt>
      <trkpt lat="46.16391" lon="6.57741">
        <ele>1557</ele>
        <time>2021-09-17T11:25:00Z</time>
      </trkpt>
      <trkpt lat="46.16369" lon="6.57707">
        <ele>1564</ele>
        <time>2021-09-17T11:25:00Z</time>
      </trkpt>
      <trkpt lat="46.16352" lon="6.57672">
        <ele>1565</ele>
        <time>2021-09-17T11:25:00Z</time>
      </trkpt>
      <trkpt lat="46.16343" lon="6.57633">
        <ele>1565</ele>
        <time>2021-09-17T11:25:00Z</time>
      </trkpt>
      <trkpt lat="46.16338" lon="6.57587">
        <ele>1563</ele>
        <time>2021-09-17T11:25:00Z</time>
      </trkpt>
      <trkpt lat="46.16332" lon="6.57541">
        <ele>1561</ele>
        <time>2021-09-17T11:25:00Z</time>
      </trkpt>
      <trkpt lat="46.16327" lon="6.57504">
        <ele>1560</ele>
        <time>2021-09-17T11:25:00Z</time>
      </trkpt>
      <trkpt lat="46.16317" lon="6.57469">
        <ele>1559</ele>
        <time>2021-09-17T11:25:00Z</time>
      </trkpt>
      <trkpt lat="46.16305" lon="6.57431">
        <ele>1557</ele>
        <time>2021-09-17T11:25:00Z</time>
      </trkpt>
      <trkpt lat="46.1629" lon="6.57404">
        <ele>1556</ele>
        <time>2021-09-17T11:25:00Z</time>
      </trkpt>
      <trkpt lat="46.16272" lon="6.57367">
        <ele>1555</ele>
        <time>2021-09-17T11:25:00Z</time>
      </trkpt>
      <trkpt lat="46.1625" lon="6.5734">
        <ele>1555</ele>
        <time>2021-09-17T11:25:00Z</time>
      </trkpt>
      <trkpt lat="46.1622" lon="6.57317">
        <ele>1555</ele>
        <time>2021-09-17T11:25:00Z</time>
      </trkpt>
      <trkpt lat="46.16204" lon="6.57283">
        <ele>1552</ele>
        <time>2021-09-17T11:25:00Z</time>
      </trkpt>
      <trkpt lat="46.16215" lon="6.5725">
        <ele>1552</ele>
        <time>2021-09-17T11:25:00Z</time>
      </trkpt>
      <trkpt lat="46.16248" lon="6.57206">
        <ele>1542</ele>
        <time>2021-09-17T11:25:00Z</time>
      </trkpt>
      <trkpt lat="46.16264" lon="6.57181">
        <ele>1542</ele>
        <time>2021-09-17T11:25:00Z</time>
      </trkpt>
      <trkpt lat="46.16303" lon="6.57258">
        <ele>1556</ele>
        <time>2021-09-17T11:25:00Z</time>
      </trkpt>
      <trkpt lat="46.16323" lon="6.57284">
        <ele>1557</ele>
        <time>2021-09-17T11:25:00Z</time>
      </trkpt>
      <trkpt lat="46.16349" lon="6.57328">
        <ele>1558</ele>
        <time>2021-09-17T11:25:00Z</time>
      </trkpt>
      <trkpt lat="46.16363" lon="6.57368">
        <ele>1559</ele>
        <time>2021-09-17T11:25:00Z</time>
      </trkpt>
      <trkpt lat="46.16376" lon="6.57395">
        <ele>1561</ele>
        <time>2021-09-17T11:25:00Z</time>
      </trkpt>
      <trkpt lat="46.16384" lon="6.57426">
        <ele>1560</ele>
        <time>2021-09-17T11:25:00Z</time>
      </trkpt>
      <trkpt lat="46.16397" lon="6.57458">
        <ele>1560</ele>
        <time>2021-09-17T11:25:00Z</time>
      </trkpt>
      <trkpt lat="46.1642" lon="6.57498">
        <ele>1560</ele>
        <time>2021-09-17T11:25:00Z</time>
      </trkpt>
      <trkpt lat="46.16428" lon="6.57532">
        <ele>1557</ele>
        <time>2021-09-17T11:25:00Z</time>
      </trkpt>
      <trkpt lat="46.16449" lon="6.57582">
        <ele>1565</ele>
        <time>2021-09-17T11:25:00Z</time>
      </trkpt>
      <trkpt lat="46.16463" lon="6.57613">
        <ele>1565</ele>
        <time>2021-09-17T11:25:00Z</time>
      </trkpt>
      <trkpt lat="46.16475" lon="6.57646">
        <ele>1565</ele>
        <time>2021-09-17T11:25:00Z</time>
      </trkpt>
      <trkpt lat="46.16494" lon="6.57668">
        <ele>1564</ele>
        <time>2021-09-17T11:25:00Z</time>
      </trkpt>
      <trkpt lat="46.16505" lon="6.5772">
        <ele>1563</ele>
        <time>2021-09-17T11:25:00Z</time>
      </trkpt>
      <trkpt lat="46.1652" lon="6.57749">
        <ele>1565</ele>
        <time>2021-09-17T11:25:00Z</time>
      </trkpt>
      <trkpt lat="46.16541" lon="6.57787">
        <ele>1564</ele>
        <time>2021-09-17T11:25:00Z</time>
      </trkpt>
      <trkpt lat="46.16565" lon="6.57822">
        <ele>1565</ele>
        <time>2021-09-17T11:25:00Z</time>
      </trkpt>
      <trkpt lat="46.16585" lon="6.57846">
        <ele>1565</ele>
        <time>2021-09-17T11:25:00Z</time>
      </trkpt>
      <trkpt lat="46.16607" lon="6.57864">
        <ele>1560</ele>
        <time>2021-09-17T11:25:00Z</time>
      </trkpt>
      <trkpt lat="46.16624" lon="6.57899">
        <ele>1556</ele>
        <time>2021-09-17T11:25:00Z</time>
      </trkpt>
      <trkpt lat="46.16648" lon="6.5793">
        <ele>1556</ele>
        <time>2021-09-17T11:25:00Z</time>
      </trkpt>
      <trkpt lat="46.16673" lon="6.57951">
        <ele>1560</ele>
        <time>2021-09-17T11:25:00Z</time>
      </trkpt>
      <trkpt lat="46.16694" lon="6.5797">
        <ele>1560</ele>
        <time>2021-09-17T11:25:00Z</time>
      </trkpt>
      <trkpt lat="46.16724" lon="6.57993">
        <ele>1567</ele>
        <time>2021-09-17T11:25:00Z</time>
      </trkpt>
      <trkpt lat="46.16744" lon="6.58009">
        <ele>1575</ele>
        <time>2021-09-17T11:25:00Z</time>
      </trkpt>
      <trkpt lat="46.16766" lon="6.58022">
        <ele>1574</ele>
        <time>2021-09-17T11:25:00Z</time>
      </trkpt>
      <trkpt lat="46.16788" lon="6.58031">
        <ele>1574</ele>
        <time>2021-09-17T11:25:00Z</time>
      </trkpt>
      <trkpt lat="46.16811" lon="6.58048">
        <ele>1582</ele>
        <time>2021-09-17T11:25:00Z</time>
      </trkpt>
      <trkpt lat="46.16839" lon="6.58065">
        <ele>1584</ele>
        <time>2021-09-17T11:25:00Z</time>
      </trkpt>
      <trkpt lat="46.16862" lon="6.58078">
        <ele>1587</ele>
        <time>2021-09-17T11:25:00Z</time>
      </trkpt>
      <trkpt lat="46.16883" lon="6.58101">
        <ele>1587</ele>
        <time>2021-09-17T11:25:00Z</time>
      </trkpt>
      <trkpt lat="46.169" lon="6.58134">
        <ele>1577</ele>
        <time>2021-09-17T11:25:00Z</time>
      </trkpt>
      <trkpt lat="46.1692" lon="6.58171">
        <ele>1578</ele>
        <time>2021-09-17T11:25:00Z</time>
      </trkpt>
      <trkpt lat="46.16943" lon="6.58186">
        <ele>1580</ele>
        <time>2021-09-17T11:25:00Z</time>
      </trkpt>
      <trkpt lat="46.16973" lon="6.58199">
        <ele>1579</ele>
        <time>2021-09-17T11:25:00Z</time>
      </trkpt>
      <trkpt lat="46.16991" lon="6.5823">
        <ele>1579</ele>
        <time>2021-09-17T11:25:00Z</time>
      </trkpt>
      <trkpt lat="46.17014" lon="6.58233">
        <ele>1580</ele>
        <time>2021-09-17T11:25:00Z</time>
      </trkpt>
      <trkpt lat="46.1704" lon="6.58237">
        <ele>1589</ele>
        <time>2021-09-17T11:25:00Z</time>
      </trkpt>
      <trkpt lat="46.17066" lon="6.58227">
        <ele>1595</ele>
        <time>2021-09-17T11:25:00Z</time>
      </trkpt>
      <trkpt lat="46.17092" lon="6.58234">
        <ele>1600</ele>
        <time>2021-09-17T11:25:00Z</time>
      </trkpt>
      <trkpt lat="46.17117" lon="6.5824">
        <ele>1600</ele>
        <time>2021-09-17T11:25:00Z</time>
      </trkpt>
      <trkpt lat="46.17143" lon="6.5822">
        <ele>1609</ele>
        <time>2021-09-17T11:25:00Z</time>
      </trkpt>
      <trkpt lat="46.17165" lon="6.58228">
        <ele>1612</ele>
        <time>2021-09-17T11:25:00Z</time>
      </trkpt>
      <trkpt lat="46.17187" lon="6.5824">
        <ele>1612</ele>
        <time>2021-09-17T11:25:00Z</time>
      </trkpt>
      <trkpt lat="46.17179" lon="6.58278">
        <ele>1615</ele>
        <time>2021-09-17T11:25:00Z</time>
      </trkpt>
      <trkpt lat="46.17172" lon="6.58319">
        <ele>1617</ele>
        <time>2021-09-17T11:25:00Z</time>
      </trkpt>
      <trkpt lat="46.1719" lon="6.58353">
        <ele>1620</ele>
        <time>2021-09-17T11:25:00Z</time>
      </trkpt>
      <trkpt lat="46.17215" lon="6.5837">
        <ele>1639</ele>
        <time>2021-09-17T11:25:00Z</time>
      </trkpt>
      <trkpt lat="46.17239" lon="6.58357">
        <ele>1639</ele>
        <time>2021-09-17T11:25:00Z</time>
      </trkpt>
      <trkpt lat="46.1727" lon="6.58352">
        <ele>1641</ele>
        <time>2021-09-17T11:25:00Z</time>
      </trkpt>
      <trkpt lat="46.17289" lon="6.58332">
        <ele>1640</ele>
        <time>2021-09-17T11:25:00Z</time>
      </trkpt>
      <trkpt lat="46.17307" lon="6.58295">
        <ele>1645</ele>
        <time>2021-09-17T11:25:00Z</time>
      </trkpt>
      <trkpt lat="46.17307" lon="6.58261">
        <ele>1647</ele>
        <time>2021-09-17T11:25:00Z</time>
      </trkpt>
      <trkpt lat="46.17327" lon="6.58236">
        <ele>1647</ele>
        <time>2021-09-17T11:25:00Z</time>
      </trkpt>
      <trkpt lat="46.17338" lon="6.58205">
        <ele>1662</ele>
        <time>2021-09-17T11:25:00Z</time>
      </trkpt>
      <trkpt lat="46.17363" lon="6.5819">
        <ele>1669</ele>
        <time>2021-09-17T11:25:00Z</time>
      </trkpt>
      <trkpt lat="46.17386" lon="6.5819">
        <ele>1674</ele>
        <time>2021-09-17T11:25:00Z</time>
      </trkpt>
      <trkpt lat="46.17408" lon="6.58207">
        <ele>1674</ele>
        <time>2021-09-17T11:25:00Z</time>
      </trkpt>
      <trkpt lat="46.17427" lon="6.58235">
        <ele>1678</ele>
        <time>2021-09-17T11:25:00Z</time>
      </trkpt>
      <trkpt lat="46.17447" lon="6.58273">
        <ele>1693</ele>
        <time>2021-09-17T11:25:00Z</time>
      </trkpt>
      <trkpt lat="46.17455" lon="6.58304">
        <ele>1693</ele>
        <time>2021-09-17T11:25:00Z</time>
      </trkpt>
      <trkpt lat="46.17473" lon="6.58326">
        <ele>1715</ele>
        <time>2021-09-17T11:25:00Z</time>
      </trkpt>
      <trkpt lat="46.17492" lon="6.58344">
        <ele>1715</ele>
        <time>2021-09-17T11:25:00Z</time>
      </trkpt>
      <trkpt lat="46.17513" lon="6.58375">
        <ele>1725</ele>
        <time>2021-09-17T11:25:00Z</time>
      </trkpt>
      <trkpt lat="46.17536" lon="6.58397">
        <ele>1731</ele>
        <time>2021-09-17T11:25:00Z</time>
      </trkpt>
      <trkpt lat="46.17569" lon="6.58425">
        <ele>1752</ele>
        <time>2021-09-17T11:25:00Z</time>
      </trkpt>
      <trkpt lat="46.17586" lon="6.58449">
        <ele>1756</ele>
        <time>2021-09-17T11:25:00Z</time>
      </trkpt>
      <trkpt lat="46.17603" lon="6.58477">
        <ele>1761</ele>
        <time>2021-09-17T11:25:00Z</time>
      </trkpt>
      <trkpt lat="46.17622" lon="6.58508">
        <ele>1768</ele>
        <time>2021-09-17T11:25:00Z</time>
      </trkpt>
      <trkpt lat="46.17638" lon="6.58531">
        <ele>1778</ele>
        <time>2021-09-17T11:25:00Z</time>
      </trkpt>
      <trkpt lat="46.17656" lon="6.58551">
        <ele>1778</ele>
        <time>2021-09-17T11:25:00Z</time>
      </trkpt>
      <trkpt lat="46.17668" lon="6.58587">
        <ele>1788</ele>
        <time>2021-09-17T11:25:00Z</time>
      </trkpt>
      <trkpt lat="46.17694" lon="6.58598">
        <ele>1788</ele>
        <time>2021-09-17T11:25:00Z</time>
      </trkpt>
      <trkpt lat="46.17717" lon="6.58616">
        <ele>1809</ele>
        <time>2021-09-17T11:25:00Z</time>
      </trkpt>
      <trkpt lat="46.17739" lon="6.58623">
        <ele>1809</ele>
        <time>2021-09-17T11:25:00Z</time>
      </trkpt>
      <trkpt lat="46.17765" lon="6.58658">
        <ele>1824</ele>
        <time>2021-09-17T11:25:00Z</time>
      </trkpt>
      <trkpt lat="46.17783" lon="6.58685">
        <ele>1826</ele>
        <time>2021-09-17T11:25:00Z</time>
      </trkpt>
      <trkpt lat="46.17801" lon="6.58714">
        <ele>1829</ele>
        <time>2021-09-17T11:25:00Z</time>
      </trkpt>
      <trkpt lat="46.17821" lon="6.58731">
        <ele>1854</ele>
        <time>2021-09-17T11:25:00Z</time>
      </trkpt>
      <trkpt lat="46.17841" lon="6.58751">
        <ele>1879</ele>
        <time>2021-09-17T11:25:00Z</time>
      </trkpt>
      <trkpt lat="46.17865" lon="6.58758">
        <ele>1883</ele>
        <time>2021-09-17T11:25:00Z</time>
      </trkpt>
      <trkpt lat="46.17893" lon="6.58757">
        <ele>1883</ele>
        <time>2021-09-17T11:25:00Z</time>
      </trkpt>
      <trkpt lat="46.17916" lon="6.58753">
        <ele>1888</ele>
        <time>2021-09-17T11:25:00Z</time>
      </trkpt>
      <trkpt lat="46.17942" lon="6.58772">
        <ele>1887</ele>
        <time>2021-09-17T11:25:00Z</time>
      </trkpt>
      <trkpt lat="46.17963" lon="6.58803">
        <ele>1887</ele>
        <time>2021-09-17T11:25:00Z</time>
      </trkpt>
      <trkpt lat="46.17981" lon="6.58829">
        <ele>1881</ele>
        <time>2021-09-17T11:25:00Z</time>
      </trkpt>
      <trkpt lat="46.18001" lon="6.58854">
        <ele>1881</ele>
        <time>2021-09-17T11:25:00Z</time>
      </trkpt>
      <trkpt lat="46.18019" lon="6.58881">
        <ele>1860</ele>
        <time>2021-09-17T11:25:00Z</time>
      </trkpt>
      <trkpt lat="46.18039" lon="6.58916">
        <ele>1859</ele>
        <time>2021-09-17T11:25:00Z</time>
      </trkpt>
      <trkpt lat="46.18058" lon="6.58942">
        <ele>1846</ele>
        <time>2021-09-17T11:25:00Z</time>
      </trkpt>
      <trkpt lat="46.1808" lon="6.58961">
        <ele>1833</ele>
        <time>2021-09-17T11:25:00Z</time>
      </trkpt>
      <trkpt lat="46.18097" lon="6.58987">
        <ele>1833</ele>
        <time>2021-09-17T11:25:00Z</time>
      </trkpt>
      <trkpt lat="46.18122" lon="6.58983">
        <ele>1829</ele>
        <time>2021-09-17T11:25:00Z</time>
      </trkpt>
      <trkpt lat="46.18148" lon="6.58989">
        <ele>1826</ele>
        <time>2021-09-17T11:25:00Z</time>
      </trkpt>
      <trkpt lat="46.18172" lon="6.58996">
        <ele>1818</ele>
        <time>2021-09-17T11:25:00Z</time>
      </trkpt>
      <trkpt lat="46.18197" lon="6.59009">
        <ele>1818</ele>
        <time>2021-09-17T11:25:00Z</time>
      </trkpt>
      <trkpt lat="46.18217" lon="6.59029">
        <ele>1786</ele>
        <time>2021-09-17T11:25:00Z</time>
      </trkpt>
      <trkpt lat="46.18243" lon="6.5905">
        <ele>1786</ele>
        <time>2021-09-17T11:25:00Z</time>
      </trkpt>
      <trkpt lat="46.18259" lon="6.59073">
        <ele>1756</ele>
        <time>2021-09-17T11:25:00Z</time>
      </trkpt>
      <trkpt lat="46.18285" lon="6.59115">
        <ele>1737</ele>
        <time>2021-09-17T11:25:00Z</time>
      </trkpt>
      <trkpt lat="46.18306" lon="6.59145">
        <ele>1729</ele>
        <time>2021-09-17T11:25:00Z</time>
      </trkpt>
      <trkpt lat="46.18333" lon="6.59163">
        <ele>1713</ele>
        <time>2021-09-17T11:25:00Z</time>
      </trkpt>
      <trkpt lat="46.18366" lon="6.59207">
        <ele>1705</ele>
        <time>2021-09-17T11:25:00Z</time>
      </trkpt>
      <trkpt lat="46.1838" lon="6.59233">
        <ele>1703</ele>
        <time>2021-09-17T11:25:00Z</time>
      </trkpt>
      <trkpt lat="46.18397" lon="6.59266">
        <ele>1698</ele>
        <time>2021-09-17T11:25:00Z</time>
      </trkpt>
      <trkpt lat="46.18436" lon="6.59307">
        <ele>1691</ele>
        <time>2021-09-17T11:25:00Z</time>
      </trkpt>
      <trkpt lat="46.18452" lon="6.59332">
        <ele>1689</ele>
        <time>2021-09-17T11:25:00Z</time>
      </trkpt>
      <trkpt lat="46.18472" lon="6.59349">
        <ele>1688</ele>
        <time>2021-09-17T11:25:00Z</time>
      </trkpt>
      <trkpt lat="46.18512" lon="6.59356">
        <ele>1683</ele>
        <time>2021-09-17T11:25:00Z</time>
      </trkpt>
      <trkpt lat="46.18535" lon="6.59361">
        <ele>1680</ele>
        <time>2021-09-17T11:25:00Z</time>
      </trkpt>
      <trkpt lat="46.18547" lon="6.59391">
        <ele>1674</ele>
        <time>2021-09-17T11:25:00Z</time>
      </trkpt>
      <trkpt lat="46.18559" lon="6.59425">
        <ele>1674</ele>
        <time>2021-09-17T11:25:00Z</time>
      </trkpt>
      <trkpt lat="46.18584" lon="6.59447">
        <ele>1659</ele>
        <time>2021-09-17T11:25:00Z</time>
      </trkpt>
      <trkpt lat="46.18611" lon="6.59475">
        <ele>1650</ele>
        <time>2021-09-17T11:25:00Z</time>
      </trkpt>
      <trkpt lat="46.18647" lon="6.59489">
        <ele>1650</ele>
        <time>2021-09-17T11:25:00Z</time>
      </trkpt>
      <trkpt lat="46.18666" lon="6.59507">
        <ele>1649</ele>
        <time>2021-09-17T11:25:00Z</time>
      </trkpt>
      <trkpt lat="46.1869" lon="6.59499">
        <ele>1643</ele>
        <time>2021-09-17T11:25:00Z</time>
      </trkpt>
      <trkpt lat="46.18718" lon="6.59498">
        <ele>1635</ele>
        <time>2021-09-17T11:25:00Z</time>
      </trkpt>
      <trkpt lat="46.18744" lon="6.59499">
        <ele>1632</ele>
        <time>2021-09-17T11:25:00Z</time>
      </trkpt>
      <trkpt lat="46.18768" lon="6.59498">
        <ele>1632</ele>
        <time>2021-09-17T11:25:00Z</time>
      </trkpt>
      <trkpt lat="46.18792" lon="6.59488">
        <ele>1631</ele>
        <time>2021-09-17T11:25:00Z</time>
      </trkpt>
      <trkpt lat="46.18815" lon="6.59491">
        <ele>1626</ele>
        <time>2021-09-17T11:25:00Z</time>
      </trkpt>
      <trkpt lat="46.18823" lon="6.59442">
        <ele>1607</ele>
        <time>2021-09-17T11:25:00Z</time>
      </trkpt>
      <trkpt lat="46.18847" lon="6.59421">
        <ele>1604</ele>
        <time>2021-09-17T11:25:00Z</time>
      </trkpt>
      <trkpt lat="46.18872" lon="6.59422">
        <ele>1600</ele>
        <time>2021-09-17T11:25:00Z</time>
      </trkpt>
      <trkpt lat="46.18898" lon="6.59431">
        <ele>1596</ele>
        <time>2021-09-17T11:25:00Z</time>
      </trkpt>
      <trkpt lat="46.1892" lon="6.59446">
        <ele>1588</ele>
        <time>2021-09-17T11:25:00Z</time>
      </trkpt>
      <trkpt lat="46.18942" lon="6.59462">
        <ele>1588</ele>
        <time>2021-09-17T11:25:00Z</time>
      </trkpt>
      <trkpt lat="46.18966" lon="6.59454">
        <ele>1586</ele>
        <time>2021-09-17T11:25:00Z</time>
      </trkpt>
      <trkpt lat="46.18992" lon="6.59451">
        <ele>1582</ele>
        <time>2021-09-17T11:25:00Z</time>
      </trkpt>
      <trkpt lat="46.19019" lon="6.59447">
        <ele>1580</ele>
        <time>2021-09-17T11:25:00Z</time>
      </trkpt>
      <trkpt lat="46.19043" lon="6.59444">
        <ele>1580</ele>
        <time>2021-09-17T11:25:00Z</time>
      </trkpt>
      <trkpt lat="46.1907" lon="6.59445">
        <ele>1580</ele>
        <time>2021-09-17T11:25:00Z</time>
      </trkpt>
      <trkpt lat="46.19096" lon="6.59451">
        <ele>1571</ele>
        <time>2021-09-17T11:25:00Z</time>
      </trkpt>
      <trkpt lat="46.19115" lon="6.59472">
        <ele>1556</ele>
        <time>2021-09-17T11:25:00Z</time>
      </trkpt>
      <trkpt lat="46.19142" lon="6.59497">
        <ele>1550</ele>
        <time>2021-09-17T11:25:00Z</time>
      </trkpt>
      <trkpt lat="46.19174" lon="6.59514">
        <ele>1545</ele>
        <time>2021-09-17T11:25:00Z</time>
      </trkpt>
      <trkpt lat="46.19199" lon="6.59533">
        <ele>1537</ele>
        <time>2021-09-17T11:25:00Z</time>
      </trkpt>
      <trkpt lat="46.19218" lon="6.59551">
        <ele>1532</ele>
        <time>2021-09-17T11:25:00Z</time>
      </trkpt>
      <trkpt lat="46.19257" lon="6.59566">
        <ele>1531</ele>
        <time>2021-09-17T11:25:00Z</time>
      </trkpt>
      <trkpt lat="46.19289" lon="6.59567">
        <ele>1531</ele>
        <time>2021-09-17T11:25:00Z</time>
      </trkpt>
      <trkpt lat="46.19308" lon="6.59585">
        <ele>1510</ele>
        <time>2021-09-17T11:25:00Z</time>
      </trkpt>
      <trkpt lat="46.19323" lon="6.59614">
        <ele>1499</ele>
        <time>2021-09-17T11:25:00Z</time>
      </trkpt>
      <trkpt lat="46.19345" lon="6.5963">
        <ele>1499</ele>
        <time>2021-09-17T11:25:00Z</time>
      </trkpt>
      <trkpt lat="46.19374" lon="6.59646">
        <ele>1491</ele>
        <time>2021-09-17T11:25:00Z</time>
      </trkpt>
      <trkpt lat="46.19397" lon="6.59651">
        <ele>1490</ele>
        <time>2021-09-17T11:25:00Z</time>
      </trkpt>
      <trkpt lat="46.1943" lon="6.59665">
        <ele>1483</ele>
        <time>2021-09-17T11:25:00Z</time>
      </trkpt>
      <trkpt lat="46.19458" lon="6.59674">
        <ele>1478</ele>
        <time>2021-09-17T11:25:00Z</time>
      </trkpt>
      <trkpt lat="46.19499" lon="6.59689">
        <ele>1457</ele>
        <time>2021-09-17T11:25:00Z</time>
      </trkpt>
      <trkpt lat="46.19523" lon="6.59694">
        <ele>1452</ele>
        <time>2021-09-17T11:25:00Z</time>
      </trkpt>
      <trkpt lat="46.19543" lon="6.59709">
        <ele>1448</ele>
        <time>2021-09-17T11:25:00Z</time>
      </trkpt>
      <trkpt lat="46.19568" lon="6.59719">
        <ele>1437</ele>
        <time>2021-09-17T11:25:00Z</time>
      </trkpt>
      <trkpt lat="46.1959" lon="6.59731">
        <ele>1428</ele>
        <time>2021-09-17T11:25:00Z</time>
      </trkpt>
      <trkpt lat="46.19617" lon="6.5974">
        <ele>1421</ele>
        <time>2021-09-17T11:25:00Z</time>
      </trkpt>
      <trkpt lat="46.19646" lon="6.59747">
        <ele>1418</ele>
        <time>2021-09-17T11:25:00Z</time>
      </trkpt>
      <trkpt lat="46.19673" lon="6.59749">
        <ele>1410</ele>
        <time>2021-09-17T11:25:00Z</time>
      </trkpt>
      <trkpt lat="46.197" lon="6.59753">
        <ele>1404</ele>
        <time>2021-09-17T11:25:00Z</time>
      </trkpt>
      <trkpt lat="46.1972" lon="6.5978">
        <ele>1412</ele>
        <time>2021-09-17T11:25:00Z</time>
      </trkpt>
      <trkpt lat="46.19737" lon="6.59803">
        <ele>1412</ele>
        <time>2021-09-17T11:25:00Z</time>
      </trkpt>
      <trkpt lat="46.19757" lon="6.59819">
        <ele>1413</ele>
        <time>2021-09-17T11:25:00Z</time>
      </trkpt>
      <trkpt lat="46.19766" lon="6.59855">
        <ele>1416</ele>
        <time>2021-09-17T11:25:00Z</time>
      </trkpt>
      <trkpt lat="46.19778" lon="6.59889">
        <ele>1420</ele>
        <time>2021-09-17T11:25:00Z</time>
      </trkpt>
      <trkpt lat="46.19751" lon="6.59878">
        <ele>1432</ele>
        <time>2021-09-17T11:25:00Z</time>
      </trkpt>
      <trkpt lat="46.1974" lon="6.59911">
        <ele>1440</ele>
        <time>2021-09-17T11:25:00Z</time>
      </trkpt>
      <trkpt lat="46.1975" lon="6.59948">
        <ele>1447</ele>
        <time>2021-09-17T11:25:00Z</time>
      </trkpt>
      <trkpt lat="46.19756" lon="6.59981">
        <ele>1484</ele>
        <time>2021-09-17T11:25:00Z</time>
      </trkpt>
      <trkpt lat="46.19765" lon="6.60021">
        <ele>1483</ele>
        <time>2021-09-17T11:25:00Z</time>
      </trkpt>
      <trkpt lat="46.19773" lon="6.60053">
        <ele>1489</ele>
        <time>2021-09-17T11:25:00Z</time>
      </trkpt>
      <trkpt lat="46.19777" lon="6.60099">
        <ele>1496</ele>
        <time>2021-09-17T11:25:00Z</time>
      </trkpt>
      <trkpt lat="46.19785" lon="6.60135">
        <ele>1522</ele>
        <time>2021-09-17T11:25:00Z</time>
      </trkpt>
      <trkpt lat="46.19793" lon="6.60185">
        <ele>1531</ele>
        <time>2021-09-17T11:25:00Z</time>
      </trkpt>
      <trkpt lat="46.19802" lon="6.60223">
        <ele>1536</ele>
        <time>2021-09-17T11:25:00Z</time>
      </trkpt>
      <trkpt lat="46.19798" lon="6.60256">
        <ele>1539</ele>
        <time>2021-09-17T11:25:00Z</time>
      </trkpt>
      <trkpt lat="46.1982" lon="6.60282">
        <ele>1523</ele>
        <time>2021-09-17T11:25:00Z</time>
      </trkpt>
      <trkpt lat="46.19838" lon="6.60302">
        <ele>1508</ele>
        <time>2021-09-17T11:25:00Z</time>
      </trkpt>
      <trkpt lat="46.19859" lon="6.6029">
        <ele>1508</ele>
        <time>2021-09-17T11:25:00Z</time>
      </trkpt>
      <trkpt lat="46.19876" lon="6.60255">
        <ele>1511</ele>
        <time>2021-09-17T11:25:00Z</time>
      </trkpt>
      <trkpt lat="46.19895" lon="6.6023">
        <ele>1511</ele>
        <time>2021-09-17T11:25:00Z</time>
      </trkpt>
      <trkpt lat="46.1992" lon="6.6023">
        <ele>1514</ele>
        <time>2021-09-17T11:25:00Z</time>
      </trkpt>
      <trkpt lat="46.19944" lon="6.6024">
        <ele>1520</ele>
        <time>2021-09-17T11:25:00Z</time>
      </trkpt>
      <trkpt lat="46.19957" lon="6.60272">
        <ele>1520</ele>
        <time>2021-09-17T11:25:00Z</time>
      </trkpt>
      <trkpt lat="46.19959" lon="6.60309">
        <ele>1521</ele>
        <time>2021-09-17T11:25:00Z</time>
      </trkpt>
      <trkpt lat="46.19961" lon="6.60342">
        <ele>1524</ele>
        <time>2021-09-17T11:25:00Z</time>
      </trkpt>
      <trkpt lat="46.19947" lon="6.60382">
        <ele>1521</ele>
        <time>2021-09-17T11:25:00Z</time>
      </trkpt>
      <trkpt lat="46.19934" lon="6.60411">
        <ele>1520</ele>
        <time>2021-09-17T11:25:00Z</time>
      </trkpt>
      <trkpt lat="46.19933" lon="6.60478">
        <ele>1523</ele>
        <time>2021-09-17T11:25:00Z</time>
      </trkpt>
      <trkpt lat="46.19918" lon="6.6052">
        <ele>1525</ele>
        <time>2021-09-17T11:25:00Z</time>
      </trkpt>
      <trkpt lat="46.19916" lon="6.6056">
        <ele>1530</ele>
        <time>2021-09-17T11:25:00Z</time>
      </trkpt>
      <trkpt lat="46.1992" lon="6.60605">
        <ele>1543</ele>
        <time>2021-09-17T11:25:00Z</time>
      </trkpt>
      <trkpt lat="46.19905" lon="6.60634">
        <ele>1542</ele>
        <time>2021-09-17T11:25:00Z</time>
      </trkpt>
      <trkpt lat="46.19883" lon="6.60654">
        <ele>1540</ele>
        <time>2021-09-17T11:25:00Z</time>
      </trkpt>
      <trkpt lat="46.19865" lon="6.60678">
        <ele>1551</ele>
        <time>2021-09-17T11:25:00Z</time>
      </trkpt>
      <trkpt lat="46.19846" lon="6.60711">
        <ele>1556</ele>
        <time>2021-09-17T11:25:00Z</time>
      </trkpt>
      <trkpt lat="46.19825" lon="6.60733">
        <ele>1570</ele>
        <time>2021-09-17T11:25:00Z</time>
      </trkpt>
      <trkpt lat="46.19802" lon="6.6075">
        <ele>1579</ele>
        <time>2021-09-17T11:25:00Z</time>
      </trkpt>
      <trkpt lat="46.19794" lon="6.60787">
        <ele>1586</ele>
        <time>2021-09-17T11:25:00Z</time>
      </trkpt>
      <trkpt lat="46.19774" lon="6.60821">
        <ele>1599</ele>
        <time>2021-09-17T11:25:00Z</time>
      </trkpt>
      <trkpt lat="46.19755" lon="6.60844">
        <ele>1600</ele>
        <time>2021-09-17T11:25:00Z</time>
      </trkpt>
      <trkpt lat="46.19733" lon="6.60871">
        <ele>1601</ele>
        <time>2021-09-17T11:25:00Z</time>
      </trkpt>
      <trkpt lat="46.19725" lon="6.60903">
        <ele>1612</ele>
        <time>2021-09-17T11:25:00Z</time>
      </trkpt>
      <trkpt lat="46.19708" lon="6.60925">
        <ele>1619</ele>
        <time>2021-09-17T11:25:00Z</time>
      </trkpt>
      <trkpt lat="46.19698" lon="6.60958">
        <ele>1634</ele>
        <time>2021-09-17T11:25:00Z</time>
      </trkpt>
      <trkpt lat="46.19679" lon="6.60976">
        <ele>1663</ele>
        <time>2021-09-17T11:25:00Z</time>
      </trkpt>
      <trkpt lat="46.19667" lon="6.61008">
        <ele>1673</ele>
        <time>2021-09-17T11:25:00Z</time>
      </trkpt>
      <trkpt lat="46.19663" lon="6.61041">
        <ele>1682</ele>
        <time>2021-09-17T11:25:00Z</time>
      </trkpt>
      <trkpt lat="46.19642" lon="6.61055">
        <ele>1691</ele>
        <time>2021-09-17T11:25:00Z</time>
      </trkpt>
      <trkpt lat="46.19622" lon="6.61072">
        <ele>1730</ele>
        <time>2021-09-17T11:25:00Z</time>
      </trkpt>
      <trkpt lat="46.19629" lon="6.61104">
        <ele>1730</ele>
        <time>2021-09-17T11:25:00Z</time>
      </trkpt>
      <trkpt lat="46.19625" lon="6.61139">
        <ele>1732</ele>
        <time>2021-09-17T11:25:00Z</time>
      </trkpt>
      <trkpt lat="46.19643" lon="6.61166">
        <ele>1732</ele>
        <time>2021-09-17T11:25:00Z</time>
      </trkpt>
      <trkpt lat="46.19637" lon="6.61199">
        <ele>1735</ele>
        <time>2021-09-17T11:25:00Z</time>
      </trkpt>
      <trkpt lat="46.19613" lon="6.6121">
        <ele>1744</ele>
        <time>2021-09-17T11:25:00Z</time>
      </trkpt>
      <trkpt lat="46.19639" lon="6.61229">
        <ele>1741</ele>
        <time>2021-09-17T11:25:00Z</time>
      </trkpt>
      <trkpt lat="46.19668" lon="6.61235">
        <ele>1741</ele>
        <time>2021-09-17T11:25:00Z</time>
      </trkpt>
      <trkpt lat="46.1969" lon="6.61228">
        <ele>1743</ele>
        <time>2021-09-17T11:25:00Z</time>
      </trkpt>
      <trkpt lat="46.1972" lon="6.61238">
        <ele>1775</ele>
        <time>2021-09-17T11:25:00Z</time>
      </trkpt>
      <trkpt lat="46.19765" lon="6.61228">
        <ele>1784</ele>
        <time>2021-09-17T11:25:00Z</time>
      </trkpt>
      <trkpt lat="46.19795" lon="6.61228">
        <ele>1784</ele>
        <time>2021-09-17T11:25:00Z</time>
      </trkpt>
      <trkpt lat="46.19825" lon="6.61259">
        <ele>1783</ele>
        <time>2021-09-17T11:25:00Z</time>
      </trkpt>
      <trkpt lat="46.19859" lon="6.61298">
        <ele>1781</ele>
        <time>2021-09-17T11:25:00Z</time>
      </trkpt>
      <trkpt lat="46.1989" lon="6.61346">
        <ele>1778</ele>
        <time>2021-09-17T11:25:00Z</time>
      </trkpt>
      <trkpt lat="46.1991" lon="6.61368">
        <ele>1778</ele>
        <time>2021-09-17T11:25:00Z</time>
      </trkpt>
      <trkpt lat="46.19927" lon="6.61397">
        <ele>1775</ele>
        <time>2021-09-17T11:25:00Z</time>
      </trkpt>
      <trkpt lat="46.19941" lon="6.61424">
        <ele>1773</ele>
        <time>2021-09-17T11:25:00Z</time>
      </trkpt>
      <trkpt lat="46.19959" lon="6.61459">
        <ele>1770</ele>
        <time>2021-09-17T11:25:00Z</time>
      </trkpt>
      <trkpt lat="46.19975" lon="6.61492">
        <ele>1760</ele>
        <time>2021-09-17T11:25:00Z</time>
      </trkpt>
      <trkpt lat="46.19983" lon="6.61529">
        <ele>1752</ele>
        <time>2021-09-17T11:25:00Z</time>
      </trkpt>
      <trkpt lat="46.20013" lon="6.61568">
        <ele>1746</ele>
        <time>2021-09-17T11:25:00Z</time>
      </trkpt>
      <trkpt lat="46.20028" lon="6.61597">
        <ele>1740</ele>
        <time>2021-09-17T11:25:00Z</time>
      </trkpt>
      <trkpt lat="46.20041" lon="6.61626">
        <ele>1731</ele>
        <time>2021-09-17T11:25:00Z</time>
      </trkpt>
      <trkpt lat="46.2006" lon="6.61649">
        <ele>1723</ele>
        <time>2021-09-17T11:25:00Z</time>
      </trkpt>
      <trkpt lat="46.20076" lon="6.6168">
        <ele>1719</ele>
        <time>2021-09-17T11:25:00Z</time>
      </trkpt>
      <trkpt lat="46.20096" lon="6.61696">
        <ele>1710</ele>
        <time>2021-09-17T11:25:00Z</time>
      </trkpt>
      <trkpt lat="46.20109" lon="6.61726">
        <ele>1709</ele>
        <time>2021-09-17T11:25:00Z</time>
      </trkpt>
      <trkpt lat="46.20124" lon="6.61756">
        <ele>1706</ele>
        <time>2021-09-17T11:25:00Z</time>
      </trkpt>
      <trkpt lat="46.20144" lon="6.61783">
        <ele>1701</ele>
        <time>2021-09-17T11:25:00Z</time>
      </trkpt>
      <trkpt lat="46.20165" lon="6.61802">
        <ele>1701</ele>
        <time>2021-09-17T11:25:00Z</time>
      </trkpt>
      <trkpt lat="46.20193" lon="6.61813">
        <ele>1693</ele>
        <time>2021-09-17T11:25:00Z</time>
      </trkpt>
      <trkpt lat="46.20214" lon="6.61832">
        <ele>1684</ele>
        <time>2021-09-17T11:25:00Z</time>
      </trkpt>
      <trkpt lat="46.20242" lon="6.61856">
        <ele>1661</ele>
        <time>2021-09-17T11:25:00Z</time>
      </trkpt>
      <trkpt lat="46.20267" lon="6.61878">
        <ele>1661</ele>
        <time>2021-09-17T11:25:00Z</time>
      </trkpt>
      <trkpt lat="46.20287" lon="6.61896">
        <ele>1651</ele>
        <time>2021-09-17T11:25:00Z</time>
      </trkpt>
      <trkpt lat="46.20313" lon="6.61919">
        <ele>1649</ele>
        <time>2021-09-17T11:25:00Z</time>
      </trkpt>
      <trkpt lat="46.2033" lon="6.61955">
        <ele>1643</ele>
        <time>2021-09-17T11:25:00Z</time>
      </trkpt>
      <trkpt lat="46.2035" lon="6.62003">
        <ele>1638</ele>
        <time>2021-09-17T11:25:00Z</time>
      </trkpt>
      <trkpt lat="46.2036" lon="6.62037">
        <ele>1636</ele>
        <time>2021-09-17T11:25:00Z</time>
      </trkpt>
      <trkpt lat="46.20376" lon="6.62076">
        <ele>1635</ele>
        <time>2021-09-17T11:25:00Z</time>
      </trkpt>
      <trkpt lat="46.20388" lon="6.62113">
        <ele>1633</ele>
        <time>2021-09-17T11:25:00Z</time>
      </trkpt>
      <trkpt lat="46.20405" lon="6.6214">
        <ele>1633</ele>
        <time>2021-09-17T11:25:00Z</time>
      </trkpt>
      <trkpt lat="46.20432" lon="6.62189">
        <ele>1631</ele>
        <time>2021-09-17T11:25:00Z</time>
      </trkpt>
      <trkpt lat="46.20463" lon="6.62268">
        <ele>1619</ele>
        <time>2021-09-17T11:25:00Z</time>
      </trkpt>
      <trkpt lat="46.2044" lon="6.62267">
        <ele>1617</ele>
        <time>2021-09-17T11:25:00Z</time>
      </trkpt>
      <trkpt lat="46.20423" lon="6.62243">
        <ele>1617</ele>
        <time>2021-09-17T11:25:00Z</time>
      </trkpt>
      <trkpt lat="46.20401" lon="6.62221">
        <ele>1618</ele>
        <time>2021-09-17T11:25:00Z</time>
      </trkpt>
      <trkpt lat="46.20382" lon="6.62199">
        <ele>1619</ele>
        <time>2021-09-17T11:25:00Z</time>
      </trkpt>
      <trkpt lat="46.20355" lon="6.62178">
        <ele>1610</ele>
        <time>2021-09-17T11:25:00Z</time>
      </trkpt>
      <trkpt lat="46.20306" lon="6.62162">
        <ele>1597</ele>
        <time>2021-09-17T11:25:00Z</time>
      </trkpt>
      <trkpt lat="46.20279" lon="6.62159">
        <ele>1592</ele>
        <time>2021-09-17T11:25:00Z</time>
      </trkpt>
      <trkpt lat="46.20253" lon="6.62171">
        <ele>1582</ele>
        <time>2021-09-17T11:25:00Z</time>
      </trkpt>
      <trkpt lat="46.2025" lon="6.62204">
        <ele>1576</ele>
        <time>2021-09-17T11:25:00Z</time>
      </trkpt>
      <trkpt lat="46.20266" lon="6.6223">
        <ele>1573</ele>
        <time>2021-09-17T11:25:00Z</time>
      </trkpt>
      <trkpt lat="46.20285" lon="6.6226">
        <ele>1568</ele>
        <time>2021-09-17T11:25:00Z</time>
      </trkpt>
      <trkpt lat="46.203" lon="6.62314">
        <ele>1554</ele>
        <time>2021-09-17T11:25:00Z</time>
      </trkpt>
      <trkpt lat="46.20309" lon="6.62368">
        <ele>1546</ele>
        <time>2021-09-17T11:25:00Z</time>
      </trkpt>
      <trkpt lat="46.20302" lon="6.62405">
        <ele>1546</ele>
        <time>2021-09-17T11:25:00Z</time>
      </trkpt>
      <trkpt lat="46.20314" lon="6.62438">
        <ele>1541</ele>
        <time>2021-09-17T11:25:00Z</time>
      </trkpt>
      <trkpt lat="46.20332" lon="6.6246">
        <ele>1538</ele>
        <time>2021-09-17T11:25:00Z</time>
      </trkpt>
      <trkpt lat="46.20342" lon="6.62491">
        <ele>1534</ele>
        <time>2021-09-17T11:25:00Z</time>
      </trkpt>
      <trkpt lat="46.20345" lon="6.62536">
        <ele>1533</ele>
        <time>2021-09-17T11:25:00Z</time>
      </trkpt>
      <trkpt lat="46.20353" lon="6.62571">
        <ele>1532</ele>
        <time>2021-09-17T11:25:00Z</time>
      </trkpt>
      <trkpt lat="46.2035" lon="6.62605">
        <ele>1514</ele>
        <time>2021-09-17T11:25:00Z</time>
      </trkpt>
      <trkpt lat="46.20345" lon="6.62639">
        <ele>1498</ele>
        <time>2021-09-17T11:25:00Z</time>
      </trkpt>
      <trkpt lat="46.20345" lon="6.62674">
        <ele>1494</ele>
        <time>2021-09-17T11:25:00Z</time>
      </trkpt>
      <trkpt lat="46.2034" lon="6.62706">
        <ele>1491</ele>
        <time>2021-09-17T11:25:00Z</time>
      </trkpt>
      <trkpt lat="46.20332" lon="6.62737">
        <ele>1488</ele>
        <time>2021-09-17T11:25:00Z</time>
      </trkpt>
      <trkpt lat="46.20316" lon="6.6277">
        <ele>1488</ele>
        <time>2021-09-17T11:25:00Z</time>
      </trkpt>
      <trkpt lat="46.20294" lon="6.62787">
        <ele>1482</ele>
        <time>2021-09-17T11:25:00Z</time>
      </trkpt>
      <trkpt lat="46.20273" lon="6.62807">
        <ele>1468</ele>
        <time>2021-09-17T11:25:00Z</time>
      </trkpt>
      <trkpt lat="46.20262" lon="6.62849">
        <ele>1464</ele>
        <time>2021-09-17T11:25:00Z</time>
      </trkpt>
      <trkpt lat="46.2026" lon="6.62892">
        <ele>1458</ele>
        <time>2021-09-17T11:25:00Z</time>
      </trkpt>
      <trkpt lat="46.20256" lon="6.62932">
        <ele>1448</ele>
        <time>2021-09-17T11:25:00Z</time>
      </trkpt>
      <trkpt lat="46.20253" lon="6.62976">
        <ele>1440</ele>
        <time>2021-09-17T11:25:00Z</time>
      </trkpt>
      <trkpt lat="46.20248" lon="6.63012">
        <ele>1438</ele>
        <time>2021-09-17T11:25:00Z</time>
      </trkpt>
      <trkpt lat="46.20248" lon="6.63064">
        <ele>1429</ele>
        <time>2021-09-17T11:25:00Z</time>
      </trkpt>
      <trkpt lat="46.2024" lon="6.631">
        <ele>1427</ele>
        <time>2021-09-17T11:25:00Z</time>
      </trkpt>
      <trkpt lat="46.20244" lon="6.63142">
        <ele>1416</ele>
        <time>2021-09-17T11:25:00Z</time>
      </trkpt>
      <trkpt lat="46.20234" lon="6.63188">
        <ele>1413</ele>
        <time>2021-09-17T11:25:00Z</time>
      </trkpt>
      <trkpt lat="46.20226" lon="6.63224">
        <ele>1413</ele>
        <time>2021-09-17T11:25:00Z</time>
      </trkpt>
      <trkpt lat="46.20226" lon="6.63272">
        <ele>1403</ele>
        <time>2021-09-17T11:25:00Z</time>
      </trkpt>
      <trkpt lat="46.20217" lon="6.63304">
        <ele>1402</ele>
        <time>2021-09-17T11:25:00Z</time>
      </trkpt>
      <trkpt lat="46.20184" lon="6.63305">
        <ele>1401</ele>
        <time>2021-09-17T11:25:00Z</time>
      </trkpt>
      <trkpt lat="46.20159" lon="6.63305">
        <ele>1401</ele>
        <time>2021-09-17T11:25:00Z</time>
      </trkpt>
      <trkpt lat="46.20127" lon="6.63293">
        <ele>1402</ele>
        <time>2021-09-17T11:25:00Z</time>
      </trkpt>
      <trkpt lat="46.20101" lon="6.63286">
        <ele>1402</ele>
        <time>2021-09-17T11:25:00Z</time>
      </trkpt>
      <trkpt lat="46.20117" lon="6.63322">
        <ele>1394</ele>
        <time>2021-09-17T11:25:00Z</time>
      </trkpt>
      <trkpt lat="46.20142" lon="6.63346">
        <ele>1393</ele>
        <time>2021-09-17T11:25:00Z</time>
      </trkpt>
      <trkpt lat="46.20178" lon="6.63367">
        <ele>1386</ele>
        <time>2021-09-17T11:25:00Z</time>
      </trkpt>
      <trkpt lat="46.20148" lon="6.63386">
        <ele>1384</ele>
        <time>2021-09-17T11:25:00Z</time>
      </trkpt>
      <trkpt lat="46.20143" lon="6.63429">
        <ele>1376</ele>
        <time>2021-09-17T11:25:00Z</time>
      </trkpt>
      <trkpt lat="46.20173" lon="6.63478">
        <ele>1359</ele>
        <time>2021-09-17T11:25:00Z</time>
      </trkpt>
      <trkpt lat="46.20176" lon="6.63531">
        <ele>1352</ele>
        <time>2021-09-17T11:25:00Z</time>
      </trkpt>
      <trkpt lat="46.20166" lon="6.63566">
        <ele>1349</ele>
        <time>2021-09-17T11:25:00Z</time>
      </trkpt>
      <trkpt lat="46.20141" lon="6.63541">
        <ele>1352</ele>
        <time>2021-09-17T11:25:00Z</time>
      </trkpt>
      <trkpt lat="46.20126" lon="6.63516">
        <ele>1356</ele>
        <time>2021-09-17T11:25:00Z</time>
      </trkpt>
      <trkpt lat="46.20103" lon="6.63499">
        <ele>1361</ele>
        <time>2021-09-17T11:25:00Z</time>
      </trkpt>
      <trkpt lat="46.20088" lon="6.63473">
        <ele>1363</ele>
        <time>2021-09-17T11:25:00Z</time>
      </trkpt>
      <trkpt lat="46.20059" lon="6.6345">
        <ele>1375</ele>
        <time>2021-09-17T11:25:00Z</time>
      </trkpt>
      <trkpt lat="46.20022" lon="6.63428">
        <ele>1383</ele>
        <time>2021-09-17T11:25:00Z</time>
      </trkpt>
      <trkpt lat="46.19997" lon="6.63426">
        <ele>1384</ele>
        <time>2021-09-17T11:25:00Z</time>
      </trkpt>
      <trkpt lat="46.19971" lon="6.6341">
        <ele>1386</ele>
        <time>2021-09-17T11:25:00Z</time>
      </trkpt>
      <trkpt lat="46.19949" lon="6.63392">
        <ele>1393</ele>
        <time>2021-09-17T11:25:00Z</time>
      </trkpt>
      <trkpt lat="46.1993" lon="6.6337">
        <ele>1393</ele>
        <time>2021-09-17T11:25:00Z</time>
      </trkpt>
      <trkpt lat="46.19912" lon="6.63341">
        <ele>1404</ele>
        <time>2021-09-17T11:25:00Z</time>
      </trkpt>
      <trkpt lat="46.19892" lon="6.63294">
        <ele>1412</ele>
        <time>2021-09-17T11:25:00Z</time>
      </trkpt>
      <trkpt lat="46.19876" lon="6.63259">
        <ele>1412</ele>
        <time>2021-09-17T11:25:00Z</time>
      </trkpt>
      <trkpt lat="46.19863" lon="6.63229">
        <ele>1418</ele>
        <time>2021-09-17T11:25:00Z</time>
      </trkpt>
      <trkpt lat="46.19853" lon="6.63199">
        <ele>1425</ele>
        <time>2021-09-17T11:25:00Z</time>
      </trkpt>
      <trkpt lat="46.19824" lon="6.63172">
        <ele>1442</ele>
        <time>2021-09-17T11:25:00Z</time>
      </trkpt>
      <trkpt lat="46.19802" lon="6.6315">
        <ele>1453</ele>
        <time>2021-09-17T11:25:00Z</time>
      </trkpt>
      <trkpt lat="46.19785" lon="6.63122">
        <ele>1460</ele>
        <time>2021-09-17T11:25:00Z</time>
      </trkpt>
      <trkpt lat="46.19766" lon="6.63101">
        <ele>1460</ele>
        <time>2021-09-17T11:25:00Z</time>
      </trkpt>
      <trkpt lat="46.19746" lon="6.63074">
        <ele>1469</ele>
        <time>2021-09-17T11:25:00Z</time>
      </trkpt>
      <trkpt lat="46.19728" lon="6.63054">
        <ele>1486</ele>
        <time>2021-09-17T11:25:00Z</time>
      </trkpt>
      <trkpt lat="46.19705" lon="6.63041">
        <ele>1488</ele>
        <time>2021-09-17T11:25:00Z</time>
      </trkpt>
      <trkpt lat="46.19684" lon="6.63027">
        <ele>1494</ele>
        <time>2021-09-17T11:25:00Z</time>
      </trkpt>
      <trkpt lat="46.19653" lon="6.63014">
        <ele>1494</ele>
        <time>2021-09-17T11:25:00Z</time>
      </trkpt>
      <trkpt lat="46.19629" lon="6.63005">
        <ele>1510</ele>
        <time>2021-09-17T11:25:00Z</time>
      </trkpt>
      <trkpt lat="46.19605" lon="6.62998">
        <ele>1517</ele>
        <time>2021-09-17T11:25:00Z</time>
      </trkpt>
      <trkpt lat="46.19579" lon="6.62987">
        <ele>1523</ele>
        <time>2021-09-17T11:25:00Z</time>
      </trkpt>
      <trkpt lat="46.19556" lon="6.62971">
        <ele>1526</ele>
        <time>2021-09-17T11:25:00Z</time>
      </trkpt>
      <trkpt lat="46.19532" lon="6.62965">
        <ele>1529</ele>
        <time>2021-09-17T11:25:00Z</time>
      </trkpt>
      <trkpt lat="46.19513" lon="6.62944">
        <ele>1527</ele>
        <time>2021-09-17T11:25:00Z</time>
      </trkpt>
      <trkpt lat="46.19497" lon="6.62918">
        <ele>1539</ele>
        <time>2021-09-17T11:25:00Z</time>
      </trkpt>
      <trkpt lat="46.19479" lon="6.62895">
        <ele>1541</ele>
        <time>2021-09-17T11:25:00Z</time>
      </trkpt>
      <trkpt lat="46.19466" lon="6.62858">
        <ele>1554</ele>
        <time>2021-09-17T11:25:00Z</time>
      </trkpt>
      <trkpt lat="46.19463" lon="6.62824">
        <ele>1561</ele>
        <time>2021-09-17T11:25:00Z</time>
      </trkpt>
      <trkpt lat="46.19463" lon="6.6279">
        <ele>1569</ele>
        <time>2021-09-17T11:25:00Z</time>
      </trkpt>
      <trkpt lat="46.19482" lon="6.62765">
        <ele>1584</ele>
        <time>2021-09-17T11:25:00Z</time>
      </trkpt>
      <trkpt lat="46.19505" lon="6.6278">
        <ele>1585</ele>
        <time>2021-09-17T11:25:00Z</time>
      </trkpt>
      <trkpt lat="46.19532" lon="6.62788">
        <ele>1590</ele>
        <time>2021-09-17T11:25:00Z</time>
      </trkpt>
      <trkpt lat="46.19557" lon="6.62792">
        <ele>1590</ele>
        <time>2021-09-17T11:25:00Z</time>
      </trkpt>
      <trkpt lat="46.19582" lon="6.62798">
        <ele>1612</ele>
        <time>2021-09-17T11:25:00Z</time>
      </trkpt>
      <trkpt lat="46.19605" lon="6.62796">
        <ele>1612</ele>
        <time>2021-09-17T11:25:00Z</time>
      </trkpt>
      <trkpt lat="46.1959" lon="6.62767">
        <ele>1627</ele>
        <time>2021-09-17T11:25:00Z</time>
      </trkpt>
      <trkpt lat="46.1958" lon="6.62735">
        <ele>1628</ele>
        <time>2021-09-17T11:25:00Z</time>
      </trkpt>
      <trkpt lat="46.19568" lon="6.62706">
        <ele>1628</ele>
        <time>2021-09-17T11:25:00Z</time>
      </trkpt>
      <trkpt lat="46.1955" lon="6.62676">
        <ele>1640</ele>
        <time>2021-09-17T11:25:00Z</time>
      </trkpt>
      <trkpt lat="46.19534" lon="6.62645">
        <ele>1641</ele>
        <time>2021-09-17T11:25:00Z</time>
      </trkpt>
      <trkpt lat="46.19529" lon="6.6261">
        <ele>1650</ele>
        <time>2021-09-17T11:25:00Z</time>
      </trkpt>
      <trkpt lat="46.19521" lon="6.62576">
        <ele>1651</ele>
        <time>2021-09-17T11:25:00Z</time>
      </trkpt>
      <trkpt lat="46.19512" lon="6.62546">
        <ele>1652</ele>
        <time>2021-09-17T11:25:00Z</time>
      </trkpt>
      <trkpt lat="46.19505" lon="6.62505">
        <ele>1658</ele>
        <time>2021-09-17T11:25:00Z</time>
      </trkpt>
      <trkpt lat="46.19492" lon="6.62471">
        <ele>1673</ele>
        <time>2021-09-17T11:25:00Z</time>
      </trkpt>
      <trkpt lat="46.1948" lon="6.6242">
        <ele>1689</ele>
        <time>2021-09-17T11:25:00Z</time>
      </trkpt>
      <trkpt lat="46.19463" lon="6.62398">
        <ele>1692</ele>
        <time>2021-09-17T11:25:00Z</time>
      </trkpt>
      <trkpt lat="46.19449" lon="6.62372">
        <ele>1695</ele>
        <time>2021-09-17T11:25:00Z</time>
      </trkpt>
      <trkpt lat="46.19438" lon="6.6234">
        <ele>1695</ele>
        <time>2021-09-17T11:25:00Z</time>
      </trkpt>
      <trkpt lat="46.19426" lon="6.62305">
        <ele>1695</ele>
        <time>2021-09-17T11:25:00Z</time>
      </trkpt>
      <trkpt lat="46.1941" lon="6.62279">
        <ele>1711</ele>
        <time>2021-09-17T11:25:00Z</time>
      </trkpt>
      <trkpt lat="46.19392" lon="6.62257">
        <ele>1755</ele>
        <time>2021-09-17T11:25:00Z</time>
      </trkpt>
      <trkpt lat="46.19357" lon="6.62259">
        <ele>1760</ele>
        <time>2021-09-17T11:25:00Z</time>
      </trkpt>
      <trkpt lat="46.19336" lon="6.62247">
        <ele>1756</ele>
        <time>2021-09-17T11:25:00Z</time>
      </trkpt>
      <trkpt lat="46.19311" lon="6.62254">
        <ele>1756</ele>
        <time>2021-09-17T11:25:00Z</time>
      </trkpt>
      <trkpt lat="46.19307" lon="6.6222">
        <ele>1767</ele>
        <time>2021-09-17T11:25:00Z</time>
      </trkpt>
      <trkpt lat="46.19281" lon="6.62209">
        <ele>1777</ele>
        <time>2021-09-17T11:25:00Z</time>
      </trkpt>
      <trkpt lat="46.19237" lon="6.62203">
        <ele>1782</ele>
        <time>2021-09-17T11:25:00Z</time>
      </trkpt>
      <trkpt lat="46.19211" lon="6.62179">
        <ele>1785</ele>
        <time>2021-09-17T11:25:00Z</time>
      </trkpt>
      <trkpt lat="46.19199" lon="6.62208">
        <ele>1789</ele>
        <time>2021-09-17T11:25:00Z</time>
      </trkpt>
      <trkpt lat="46.19169" lon="6.62189">
        <ele>1808</ele>
        <time>2021-09-17T11:25:00Z</time>
      </trkpt>
      <trkpt lat="46.1914" lon="6.62153">
        <ele>1819</ele>
        <time>2021-09-17T11:25:00Z</time>
      </trkpt>
      <trkpt lat="46.19115" lon="6.62154">
        <ele>1833</ele>
        <time>2021-09-17T11:25:00Z</time>
      </trkpt>
      <trkpt lat="46.19086" lon="6.62124">
        <ele>1833</ele>
        <time>2021-09-17T11:25:00Z</time>
      </trkpt>
      <trkpt lat="46.1907" lon="6.62075">
        <ele>1859</ele>
        <time>2021-09-17T11:25:00Z</time>
      </trkpt>
      <trkpt lat="46.19039" lon="6.6207">
        <ele>1863</ele>
        <time>2021-09-17T11:25:00Z</time>
      </trkpt>
      <trkpt lat="46.19009" lon="6.62031">
        <ele>1873</ele>
        <time>2021-09-17T11:25:00Z</time>
      </trkpt>
      <trkpt lat="46.18983" lon="6.61996">
        <ele>1879</ele>
        <time>2021-09-17T11:25:00Z</time>
      </trkpt>
      <trkpt lat="46.18957" lon="6.61968">
        <ele>1892</ele>
        <time>2021-09-17T11:25:00Z</time>
      </trkpt>
      <trkpt lat="46.18935" lon="6.61934">
        <ele>1892</ele>
        <time>2021-09-17T11:25:00Z</time>
      </trkpt>
      <trkpt lat="46.18943" lon="6.6199">
        <ele>1892</ele>
        <time>2021-09-17T11:25:00Z</time>
      </trkpt>
      <trkpt lat="46.18935" lon="6.62038">
        <ele>1903</ele>
        <time>2021-09-17T11:25:00Z</time>
      </trkpt>
      <trkpt lat="46.1892" lon="6.62066">
        <ele>1902</ele>
        <time>2021-09-17T11:25:00Z</time>
      </trkpt>
      <trkpt lat="46.18898" lon="6.62083">
        <ele>1902</ele>
        <time>2021-09-17T11:25:00Z</time>
      </trkpt>
      <trkpt lat="46.18909" lon="6.6213">
        <ele>1902</ele>
        <time>2021-09-17T11:25:00Z</time>
      </trkpt>
      <trkpt lat="46.18898" lon="6.62178">
        <ele>1896</ele>
        <time>2021-09-17T11:25:00Z</time>
      </trkpt>
      <trkpt lat="46.18883" lon="6.6223">
        <ele>1883</ele>
        <time>2021-09-17T11:25:00Z</time>
      </trkpt>
      <trkpt lat="46.18877" lon="6.62287">
        <ele>1875</ele>
        <time>2021-09-17T11:25:00Z</time>
      </trkpt>
      <trkpt lat="46.18893" lon="6.62342">
        <ele>1874</ele>
        <time>2021-09-17T11:25:00Z</time>
      </trkpt>
      <trkpt lat="46.18891" lon="6.62392">
        <ele>1870</ele>
        <time>2021-09-17T11:25:00Z</time>
      </trkpt>
      <trkpt lat="46.18894" lon="6.62458">
        <ele>1854</ele>
        <time>2021-09-17T11:25:00Z</time>
      </trkpt>
      <trkpt lat="46.18885" lon="6.62502">
        <ele>1853</ele>
        <time>2021-09-17T11:25:00Z</time>
      </trkpt>
      <trkpt lat="46.18877" lon="6.62537">
        <ele>1839</ele>
        <time>2021-09-17T11:25:00Z</time>
      </trkpt>
      <trkpt lat="46.18852" lon="6.62561">
        <ele>1825</ele>
        <time>2021-09-17T11:25:00Z</time>
      </trkpt>
      <trkpt lat="46.18808" lon="6.62577">
        <ele>1815</ele>
        <time>2021-09-17T11:25:00Z</time>
      </trkpt>
      <trkpt lat="46.18783" lon="6.6257">
        <ele>1808</ele>
        <time>2021-09-17T11:25:00Z</time>
      </trkpt>
      <trkpt lat="46.18752" lon="6.62563">
        <ele>1798</ele>
        <time>2021-09-17T11:25:00Z</time>
      </trkpt>
      <trkpt lat="46.18714" lon="6.62575">
        <ele>1797</ele>
        <time>2021-09-17T11:25:00Z</time>
      </trkpt>
      <trkpt lat="46.1869" lon="6.62591">
        <ele>1782</ele>
        <time>2021-09-17T11:25:00Z</time>
      </trkpt>
      <trkpt lat="46.18668" lon="6.62601">
        <ele>1773</ele>
        <time>2021-09-17T11:25:00Z</time>
      </trkpt>
      <trkpt lat="46.18645" lon="6.62611">
        <ele>1762</ele>
        <time>2021-09-17T11:25:00Z</time>
      </trkpt>
      <trkpt lat="46.1861" lon="6.62621">
        <ele>1751</ele>
        <time>2021-09-17T11:25:00Z</time>
      </trkpt>
      <trkpt lat="46.18577" lon="6.62626">
        <ele>1741</ele>
        <time>2021-09-17T11:25:00Z</time>
      </trkpt>
      <trkpt lat="46.18538" lon="6.62636">
        <ele>1724</ele>
        <time>2021-09-17T11:25:00Z</time>
      </trkpt>
      <trkpt lat="46.18505" lon="6.62645">
        <ele>1707</ele>
        <time>2021-09-17T11:25:00Z</time>
      </trkpt>
      <trkpt lat="46.18468" lon="6.62656">
        <ele>1700</ele>
        <time>2021-09-17T11:25:00Z</time>
      </trkpt>
      <trkpt lat="46.18435" lon="6.62667">
        <ele>1687</ele>
        <time>2021-09-17T11:25:00Z</time>
      </trkpt>
      <trkpt lat="46.18401" lon="6.62678">
        <ele>1677</ele>
        <time>2021-09-17T11:25:00Z</time>
      </trkpt>
      <trkpt lat="46.18367" lon="6.62708">
        <ele>1668</ele>
        <time>2021-09-17T11:25:00Z</time>
      </trkpt>
      <trkpt lat="46.18346" lon="6.62725">
        <ele>1663</ele>
        <time>2021-09-17T11:25:00Z</time>
      </trkpt>
      <trkpt lat="46.18324" lon="6.62743">
        <ele>1658</ele>
        <time>2021-09-17T11:25:00Z</time>
      </trkpt>
      <trkpt lat="46.18281" lon="6.62754">
        <ele>1652</ele>
        <time>2021-09-17T11:25:00Z</time>
      </trkpt>
      <trkpt lat="46.18237" lon="6.62754">
        <ele>1647</ele>
        <time>2021-09-17T11:25:00Z</time>
      </trkpt>
      <trkpt lat="46.18213" lon="6.62748">
        <ele>1647</ele>
        <time>2021-09-17T11:25:00Z</time>
      </trkpt>
      <trkpt lat="46.18187" lon="6.62742">
        <ele>1637</ele>
        <time>2021-09-17T11:25:00Z</time>
      </trkpt>
      <trkpt lat="46.1815" lon="6.62737">
        <ele>1616</ele>
        <time>2021-09-17T11:25:00Z</time>
      </trkpt>
      <trkpt lat="46.18114" lon="6.62737">
        <ele>1614</ele>
        <time>2021-09-17T11:25:00Z</time>
      </trkpt>
      <trkpt lat="46.18078" lon="6.62736">
        <ele>1613</ele>
        <time>2021-09-17T11:25:00Z</time>
      </trkpt>
      <trkpt lat="46.18054" lon="6.62734">
        <ele>1611</ele>
        <time>2021-09-17T11:25:00Z</time>
      </trkpt>
      <trkpt lat="46.18029" lon="6.62731">
        <ele>1611</ele>
        <time>2021-09-17T11:25:00Z</time>
      </trkpt>
      <trkpt lat="46.17986" lon="6.62723">
        <ele>1611</ele>
        <time>2021-09-17T11:25:00Z</time>
      </trkpt>
      <trkpt lat="46.17952" lon="6.62717">
        <ele>1606</ele>
        <time>2021-09-17T11:25:00Z</time>
      </trkpt>
      <trkpt lat="46.17922" lon="6.62725">
        <ele>1605</ele>
        <time>2021-09-17T11:25:00Z</time>
      </trkpt>
      <trkpt lat="46.17888" lon="6.6271">
        <ele>1602</ele>
        <time>2021-09-17T11:25:00Z</time>
      </trkpt>
      <trkpt lat="46.1786" lon="6.62689">
        <ele>1599</ele>
        <time>2021-09-17T11:25:00Z</time>
      </trkpt>
      <trkpt lat="46.17829" lon="6.62663">
        <ele>1596</ele>
        <time>2021-09-17T11:25:00Z</time>
      </trkpt>
      <trkpt lat="46.17806" lon="6.62647">
        <ele>1593</ele>
        <time>2021-09-17T11:25:00Z</time>
      </trkpt>
      <trkpt lat="46.17772" lon="6.62635">
        <ele>1591</ele>
        <time>2021-09-17T11:25:00Z</time>
      </trkpt>
      <trkpt lat="46.17743" lon="6.6263">
        <ele>1590</ele>
        <time>2021-09-17T11:25:00Z</time>
      </trkpt>
      <trkpt lat="46.1772" lon="6.6263">
        <ele>1588</ele>
        <time>2021-09-17T11:25:00Z</time>
      </trkpt>
      <trkpt lat="46.17696" lon="6.6263">
        <ele>1587</ele>
        <time>2021-09-17T11:25:00Z</time>
      </trkpt>
      <trkpt lat="46.17669" lon="6.62609">
        <ele>1576</ele>
        <time>2021-09-17T11:25:00Z</time>
      </trkpt>
      <trkpt lat="46.17609" lon="6.62588">
        <ele>1576</ele>
        <time>2021-09-17T11:25:00Z</time>
      </trkpt>
      <trkpt lat="46.1758" lon="6.62582">
        <ele>1575</ele>
        <time>2021-09-17T11:25:00Z</time>
      </trkpt>
      <trkpt lat="46.17528" lon="6.62566">
        <ele>1563</ele>
        <time>2021-09-17T11:25:00Z</time>
      </trkpt>
      <trkpt lat="46.17486" lon="6.62567">
        <ele>1557</ele>
        <time>2021-09-17T11:25:00Z</time>
      </trkpt>
      <trkpt lat="46.17459" lon="6.62568">
        <ele>1558</ele>
        <time>2021-09-17T11:25:00Z</time>
      </trkpt>
      <trkpt lat="46.17419" lon="6.62572">
        <ele>1550</ele>
        <time>2021-09-17T11:25:00Z</time>
      </trkpt>
      <trkpt lat="46.17382" lon="6.62564">
        <ele>1542</ele>
        <time>2021-09-17T11:25:00Z</time>
      </trkpt>
      <trkpt lat="46.1735" lon="6.62565">
        <ele>1540</ele>
        <time>2021-09-17T11:25:00Z</time>
      </trkpt>
      <trkpt lat="46.17318" lon="6.62576">
        <ele>1538</ele>
        <time>2021-09-17T11:25:00Z</time>
      </trkpt>
      <trkpt lat="46.17283" lon="6.62593">
        <ele>1538</ele>
        <time>2021-09-17T11:25:00Z</time>
      </trkpt>
      <trkpt lat="46.17252" lon="6.6262">
        <ele>1538</ele>
        <time>2021-09-17T11:25:00Z</time>
      </trkpt>
      <trkpt lat="46.17221" lon="6.62644">
        <ele>1538</ele>
        <time>2021-09-17T11:25:00Z</time>
      </trkpt>
      <trkpt lat="46.17197" lon="6.6267">
        <ele>1531</ele>
        <time>2021-09-17T11:25:00Z</time>
      </trkpt>
      <trkpt lat="46.17182" lon="6.62704">
        <ele>1520</ele>
        <time>2021-09-17T11:25:00Z</time>
      </trkpt>
      <trkpt lat="46.17165" lon="6.62735">
        <ele>1520</ele>
        <time>2021-09-17T11:25:00Z</time>
      </trkpt>
      <trkpt lat="46.17145" lon="6.62755">
        <ele>1515</ele>
        <time>2021-09-17T11:25:00Z</time>
      </trkpt>
      <trkpt lat="46.17123" lon="6.62716">
        <ele>1510</ele>
        <time>2021-09-17T11:25:00Z</time>
      </trkpt>
      <trkpt lat="46.17099" lon="6.62684">
        <ele>1511</ele>
        <time>2021-09-17T11:25:00Z</time>
      </trkpt>
      <trkpt lat="46.17072" lon="6.62655">
        <ele>1510</ele>
        <time>2021-09-17T11:25:00Z</time>
      </trkpt>
      <trkpt lat="46.17035" lon="6.62648">
        <ele>1509</ele>
        <time>2021-09-17T11:25:00Z</time>
      </trkpt>
      <trkpt lat="46.17006" lon="6.62647">
        <ele>1499</ele>
        <time>2021-09-17T11:25:00Z</time>
      </trkpt>
      <trkpt lat="46.1698" lon="6.62629">
        <ele>1493</ele>
        <time>2021-09-17T11:25:00Z</time>
      </trkpt>
      <trkpt lat="46.16978" lon="6.62664">
        <ele>1492</ele>
        <time>2021-09-17T11:25:00Z</time>
      </trkpt>
      <trkpt lat="46.16993" lon="6.62689">
        <ele>1491</ele>
        <time>2021-09-17T11:25:00Z</time>
      </trkpt>
      <trkpt lat="46.17002" lon="6.62737">
        <ele>1490</ele>
        <time>2021-09-17T11:25:00Z</time>
      </trkpt>
      <trkpt lat="46.17025" lon="6.62793">
        <ele>1490</ele>
        <time>2021-09-17T11:25:00Z</time>
      </trkpt>
      <trkpt lat="46.17047" lon="6.6284">
        <ele>1492</ele>
        <time>2021-09-17T11:25:00Z</time>
      </trkpt>
      <trkpt lat="46.1707" lon="6.62861">
        <ele>1490</ele>
        <time>2021-09-17T11:25:00Z</time>
      </trkpt>
      <trkpt lat="46.17094" lon="6.62893">
        <ele>1489</ele>
        <time>2021-09-17T11:25:00Z</time>
      </trkpt>
      <trkpt lat="46.17112" lon="6.62923">
        <ele>1490</ele>
        <time>2021-09-17T11:25:00Z</time>
      </trkpt>
      <trkpt lat="46.17135" lon="6.62934">
        <ele>1488</ele>
        <time>2021-09-17T11:25:00Z</time>
      </trkpt>
      <trkpt lat="46.17135" lon="6.62984">
        <ele>1487</ele>
        <time>2021-09-17T11:25:00Z</time>
      </trkpt>
      <trkpt lat="46.1716" lon="6.63027">
        <ele>1484</ele>
        <time>2021-09-17T11:25:00Z</time>
      </trkpt>
      <trkpt lat="46.17175" lon="6.63052">
        <ele>1481</ele>
        <time>2021-09-17T11:25:00Z</time>
      </trkpt>
      <trkpt lat="46.17201" lon="6.63097">
        <ele>1481</ele>
        <time>2021-09-17T11:25:00Z</time>
      </trkpt>
      <trkpt lat="46.17228" lon="6.63152">
        <ele>1479</ele>
        <time>2021-09-17T11:25:00Z</time>
      </trkpt>
      <trkpt lat="46.17246" lon="6.63185">
        <ele>1477</ele>
        <time>2021-09-17T11:25:00Z</time>
      </trkpt>
      <trkpt lat="46.17258" lon="6.63216">
        <ele>1463</ele>
        <time>2021-09-17T11:25:00Z</time>
      </trkpt>
      <trkpt lat="46.17268" lon="6.6326">
        <ele>1466</ele>
        <time>2021-09-17T11:25:00Z</time>
      </trkpt>
      <trkpt lat="46.17292" lon="6.6331">
        <ele>1466</ele>
        <time>2021-09-17T11:25:00Z</time>
      </trkpt>
      <trkpt lat="46.17312" lon="6.6333">
        <ele>1468</ele>
        <time>2021-09-17T11:25:00Z</time>
      </trkpt>
      <trkpt lat="46.17336" lon="6.63339">
        <ele>1466</ele>
        <time>2021-09-17T11:25:00Z</time>
      </trkpt>
      <trkpt lat="46.17305" lon="6.63351">
        <ele>1450</ele>
        <time>2021-09-17T11:25:00Z</time>
      </trkpt>
      <trkpt lat="46.17271" lon="6.63357">
        <ele>1450</ele>
        <time>2021-09-17T11:25:00Z</time>
      </trkpt>
      <trkpt lat="46.17252" lon="6.63377">
        <ele>1425</ele>
        <time>2021-09-17T11:25:00Z</time>
      </trkpt>
      <trkpt lat="46.17239" lon="6.63416">
        <ele>1426</ele>
        <time>2021-09-17T11:25:00Z</time>
      </trkpt>
      <trkpt lat="46.17223" lon="6.63445">
        <ele>1427</ele>
        <time>2021-09-17T11:25:00Z</time>
      </trkpt>
      <trkpt lat="46.17212" lon="6.63487">
        <ele>1430</ele>
        <time>2021-09-17T11:25:00Z</time>
      </trkpt>
      <trkpt lat="46.17215" lon="6.63525">
        <ele>1444</ele>
        <time>2021-09-17T11:25:00Z</time>
      </trkpt>
      <trkpt lat="46.17229" lon="6.63554">
        <ele>1450</ele>
        <time>2021-09-17T11:25:00Z</time>
      </trkpt>
      <trkpt lat="46.17243" lon="6.63589">
        <ele>1450</ele>
        <time>2021-09-17T11:25:00Z</time>
      </trkpt>
      <trkpt lat="46.17259" lon="6.63615">
        <ele>1451</ele>
        <time>2021-09-17T11:25:00Z</time>
      </trkpt>
      <trkpt lat="46.17272" lon="6.63652">
        <ele>1450</ele>
        <time>2021-09-17T11:25:00Z</time>
      </trkpt>
      <trkpt lat="46.1728" lon="6.6369">
        <ele>1450</ele>
        <time>2021-09-17T11:25:00Z</time>
      </trkpt>
      <trkpt lat="46.17291" lon="6.63745">
        <ele>1446</ele>
        <time>2021-09-17T11:25:00Z</time>
      </trkpt>
      <trkpt lat="46.17309" lon="6.63786">
        <ele>1442</ele>
        <time>2021-09-17T11:25:00Z</time>
      </trkpt>
      <trkpt lat="46.17323" lon="6.63823">
        <ele>1428</ele>
        <time>2021-09-17T11:25:00Z</time>
      </trkpt>
      <trkpt lat="46.17338" lon="6.63856">
        <ele>1428</ele>
        <time>2021-09-17T11:25:00Z</time>
      </trkpt>
      <trkpt lat="46.17357" lon="6.6388">
        <ele>1422</ele>
        <time>2021-09-17T11:25:00Z</time>
      </trkpt>
      <trkpt lat="46.17371" lon="6.63911">
        <ele>1417</ele>
        <time>2021-09-17T11:25:00Z</time>
      </trkpt>
      <trkpt lat="46.17387" lon="6.63942">
        <ele>1416</ele>
        <time>2021-09-17T11:25:00Z</time>
      </trkpt>
      <trkpt lat="46.17401" lon="6.63983">
        <ele>1419</ele>
        <time>2021-09-17T11:25:00Z</time>
      </trkpt>
      <trkpt lat="46.17413" lon="6.64031">
        <ele>1421</ele>
        <time>2021-09-17T11:25:00Z</time>
      </trkpt>
      <trkpt lat="46.17417" lon="6.64068">
        <ele>1426</ele>
        <time>2021-09-17T11:25:00Z</time>
      </trkpt>
      <trkpt lat="46.17436" lon="6.64104">
        <ele>1428</ele>
        <time>2021-09-17T11:25:00Z</time>
      </trkpt>
      <trkpt lat="46.17445" lon="6.64134">
        <ele>1426</ele>
        <time>2021-09-17T11:25:00Z</time>
      </trkpt>
      <trkpt lat="46.17458" lon="6.6417">
        <ele>1429</ele>
        <time>2021-09-17T11:25:00Z</time>
      </trkpt>
      <trkpt lat="46.17465" lon="6.64201">
        <ele>1432</ele>
        <time>2021-09-17T11:25:00Z</time>
      </trkpt>
      <trkpt lat="46.17477" lon="6.6425">
        <ele>1432</ele>
        <time>2021-09-17T11:25:00Z</time>
      </trkpt>
      <trkpt lat="46.17483" lon="6.64293">
        <ele>1431</ele>
        <time>2021-09-17T11:25:00Z</time>
      </trkpt>
      <trkpt lat="46.17478" lon="6.64325">
        <ele>1431</ele>
        <time>2021-09-17T11:25:00Z</time>
      </trkpt>
      <trkpt lat="46.1749" lon="6.64353">
        <ele>1426</ele>
        <time>2021-09-17T11:25:00Z</time>
      </trkpt>
      <trkpt lat="46.175" lon="6.64385">
        <ele>1423</ele>
        <time>2021-09-17T11:25:00Z</time>
      </trkpt>
      <trkpt lat="46.17501" lon="6.64419">
        <ele>1423</ele>
        <time>2021-09-17T11:25:00Z</time>
      </trkpt>
      <trkpt lat="46.17501" lon="6.64455">
        <ele>1423</ele>
        <time>2021-09-17T11:25:00Z</time>
      </trkpt>
      <trkpt lat="46.1751" lon="6.64487">
        <ele>1424</ele>
        <time>2021-09-17T11:25:00Z</time>
      </trkpt>
      <trkpt lat="46.1752" lon="6.64518">
        <ele>1417</ele>
        <time>2021-09-17T11:25:00Z</time>
      </trkpt>
      <trkpt lat="46.17522" lon="6.64556">
        <ele>1415</ele>
        <time>2021-09-17T11:25:00Z</time>
      </trkpt>
      <trkpt lat="46.17519" lon="6.6459">
        <ele>1413</ele>
        <time>2021-09-17T11:25:00Z</time>
      </trkpt>
      <trkpt lat="46.17496" lon="6.64604">
        <ele>1434</ele>
        <time>2021-09-17T11:25:00Z</time>
      </trkpt>
      <trkpt lat="46.17482" lon="6.64568">
        <ele>1440</ele>
        <time>2021-09-17T11:25:00Z</time>
      </trkpt>
      <trkpt lat="46.17471" lon="6.64539">
        <ele>1443</ele>
        <time>2021-09-17T11:25:00Z</time>
      </trkpt>
      <trkpt lat="46.17454" lon="6.64516">
        <ele>1446</ele>
        <time>2021-09-17T11:25:00Z</time>
      </trkpt>
      <trkpt lat="46.1743" lon="6.645">
        <ele>1475</ele>
        <time>2021-09-17T11:25:00Z</time>
      </trkpt>
      <trkpt lat="46.1741" lon="6.64517">
        <ele>1475</ele>
        <time>2021-09-17T11:25:00Z</time>
      </trkpt>
      <trkpt lat="46.17404" lon="6.6448">
        <ele>1506</ele>
        <time>2021-09-17T11:25:00Z</time>
      </trkpt>
      <trkpt lat="46.1738" lon="6.64489">
        <ele>1506</ele>
        <time>2021-09-17T11:25:00Z</time>
      </trkpt>
      <trkpt lat="46.17363" lon="6.64527">
        <ele>1516</ele>
        <time>2021-09-17T11:25:00Z</time>
      </trkpt>
      <trkpt lat="46.17351" lon="6.64558">
        <ele>1521</ele>
        <time>2021-09-17T11:25:00Z</time>
      </trkpt>
      <trkpt lat="46.17353" lon="6.64604">
        <ele>1521</ele>
        <time>2021-09-17T11:25:00Z</time>
      </trkpt>
      <trkpt lat="46.17351" lon="6.64642">
        <ele>1517</ele>
        <time>2021-09-17T11:25:00Z</time>
      </trkpt>
      <trkpt lat="46.17344" lon="6.64689">
        <ele>1524</ele>
        <time>2021-09-17T11:25:00Z</time>
      </trkpt>
      <trkpt lat="46.17327" lon="6.64719">
        <ele>1524</ele>
        <time>2021-09-17T11:25:00Z</time>
      </trkpt>
      <trkpt lat="46.17333" lon="6.64755">
        <ele>1525</ele>
        <time>2021-09-17T11:25:00Z</time>
      </trkpt>
      <trkpt lat="46.17332" lon="6.64792">
        <ele>1526</ele>
        <time>2021-09-17T11:25:00Z</time>
      </trkpt>
      <trkpt lat="46.17323" lon="6.64839">
        <ele>1523</ele>
        <time>2021-09-17T11:25:00Z</time>
      </trkpt>
      <trkpt lat="46.17304" lon="6.64881">
        <ele>1522</ele>
        <time>2021-09-17T11:25:00Z</time>
      </trkpt>
      <trkpt lat="46.17288" lon="6.64912">
        <ele>1529</ele>
        <time>2021-09-17T11:25:00Z</time>
      </trkpt>
      <trkpt lat="46.17288" lon="6.64951">
        <ele>1529</ele>
        <time>2021-09-17T11:25:00Z</time>
      </trkpt>
      <trkpt lat="46.17285" lon="6.64989">
        <ele>1528</ele>
        <time>2021-09-17T11:25:00Z</time>
      </trkpt>
      <trkpt lat="46.17276" lon="6.65019">
        <ele>1525</ele>
        <time>2021-09-17T11:25:00Z</time>
      </trkpt>
      <trkpt lat="46.17246" lon="6.65034">
        <ele>1529</ele>
        <time>2021-09-17T11:25:00Z</time>
      </trkpt>
      <trkpt lat="46.17223" lon="6.65052">
        <ele>1530</ele>
        <time>2021-09-17T11:25:00Z</time>
      </trkpt>
      <trkpt lat="46.17221" lon="6.6509">
        <ele>1529</ele>
        <time>2021-09-17T11:25:00Z</time>
      </trkpt>
      <trkpt lat="46.17218" lon="6.65128">
        <ele>1529</ele>
        <time>2021-09-17T11:25:00Z</time>
      </trkpt>
      <trkpt lat="46.17205" lon="6.65161">
        <ele>1533</ele>
        <time>2021-09-17T11:25:00Z</time>
      </trkpt>
      <trkpt lat="46.17196" lon="6.65197">
        <ele>1538</ele>
        <time>2021-09-17T11:25:00Z</time>
      </trkpt>
      <trkpt lat="46.17197" lon="6.65245">
        <ele>1537</ele>
        <time>2021-09-17T11:25:00Z</time>
      </trkpt>
      <trkpt lat="46.17211" lon="6.65276">
        <ele>1537</ele>
        <time>2021-09-17T11:25:00Z</time>
      </trkpt>
      <trkpt lat="46.17222" lon="6.65313">
        <ele>1541</ele>
        <time>2021-09-17T11:25:00Z</time>
      </trkpt>
      <trkpt lat="46.17246" lon="6.65356">
        <ele>1548</ele>
        <time>2021-09-17T11:25:00Z</time>
      </trkpt>
      <trkpt lat="46.17266" lon="6.65383">
        <ele>1548</ele>
        <time>2021-09-17T11:25:00Z</time>
      </trkpt>
      <trkpt lat="46.17285" lon="6.65404">
        <ele>1548</ele>
        <time>2021-09-17T11:25:00Z</time>
      </trkpt>
      <trkpt lat="46.17306" lon="6.65425">
        <ele>1562</ele>
        <time>2021-09-17T11:25:00Z</time>
      </trkpt>
      <trkpt lat="46.17324" lon="6.65445">
        <ele>1562</ele>
        <time>2021-09-17T11:25:00Z</time>
      </trkpt>
      <trkpt lat="46.17342" lon="6.65473">
        <ele>1571</ele>
        <time>2021-09-17T11:25:00Z</time>
      </trkpt>
      <trkpt lat="46.1734" lon="6.65517">
        <ele>1572</ele>
        <time>2021-09-17T11:25:00Z</time>
      </trkpt>
      <trkpt lat="46.17321" lon="6.65535">
        <ele>1571</ele>
        <time>2021-09-17T11:25:00Z</time>
      </trkpt>
      <trkpt lat="46.17301" lon="6.65553">
        <ele>1570</ele>
        <time>2021-09-17T11:25:00Z</time>
      </trkpt>
      <trkpt lat="46.17275" lon="6.65561">
        <ele>1570</ele>
        <time>2021-09-17T11:25:00Z</time>
      </trkpt>
      <trkpt lat="46.17247" lon="6.65556">
        <ele>1571</ele>
        <time>2021-09-17T11:25:00Z</time>
      </trkpt>
      <trkpt lat="46.17222" lon="6.6555">
        <ele>1580</ele>
        <time>2021-09-17T11:25:00Z</time>
      </trkpt>
      <trkpt lat="46.172" lon="6.65526">
        <ele>1580</ele>
        <time>2021-09-17T11:25:00Z</time>
      </trkpt>
      <trkpt lat="46.17175" lon="6.65528">
        <ele>1579</ele>
        <time>2021-09-17T11:25:00Z</time>
      </trkpt>
      <trkpt lat="46.17155" lon="6.65571">
        <ele>1547</ele>
        <time>2021-09-17T11:25:00Z</time>
      </trkpt>
      <trkpt lat="46.17141" lon="6.65599">
        <ele>1547</ele>
        <time>2021-09-17T11:25:00Z</time>
      </trkpt>
      <trkpt lat="46.17132" lon="6.65632">
        <ele>1537</ele>
        <time>2021-09-17T11:25:00Z</time>
      </trkpt>
      <trkpt lat="46.17124" lon="6.6567">
        <ele>1535</ele>
        <time>2021-09-17T11:25:00Z</time>
      </trkpt>
      <trkpt lat="46.17111" lon="6.657">
        <ele>1531</ele>
        <time>2021-09-17T11:25:00Z</time>
      </trkpt>
      <trkpt lat="46.17103" lon="6.65738">
        <ele>1524</ele>
        <time>2021-09-17T11:25:00Z</time>
      </trkpt>
      <trkpt lat="46.17104" lon="6.65774">
        <ele>1515</ele>
        <time>2021-09-17T11:25:00Z</time>
      </trkpt>
      <trkpt lat="46.17119" lon="6.65803">
        <ele>1513</ele>
        <time>2021-09-17T11:25:00Z</time>
      </trkpt>
      <trkpt lat="46.17104" lon="6.65837">
        <ele>1504</ele>
        <time>2021-09-17T11:25:00Z</time>
      </trkpt>
      <trkpt lat="46.17096" lon="6.65873">
        <ele>1503</ele>
        <time>2021-09-17T11:25:00Z</time>
      </trkpt>
      <trkpt lat="46.17072" lon="6.65889">
        <ele>1503</ele>
        <time>2021-09-17T11:25:00Z</time>
      </trkpt>
      <trkpt lat="46.17063" lon="6.65919">
        <ele>1495</ele>
        <time>2021-09-17T11:25:00Z</time>
      </trkpt>
      <trkpt lat="46.1704" lon="6.65939">
        <ele>1494</ele>
        <time>2021-09-17T11:25:00Z</time>
      </trkpt>
      <trkpt lat="46.17015" lon="6.65965">
        <ele>1492</ele>
        <time>2021-09-17T11:25:00Z</time>
      </trkpt>
      <trkpt lat="46.16999" lon="6.65999">
        <ele>1490</ele>
        <time>2021-09-17T11:25:00Z</time>
      </trkpt>
      <trkpt lat="46.16992" lon="6.66036">
        <ele>1485</ele>
        <time>2021-09-17T11:25:00Z</time>
      </trkpt>
      <trkpt lat="46.16983" lon="6.66075">
        <ele>1484</ele>
        <time>2021-09-17T11:25:00Z</time>
      </trkpt>
      <trkpt lat="46.16975" lon="6.66107">
        <ele>1483</ele>
        <time>2021-09-17T11:25:00Z</time>
      </trkpt>
      <trkpt lat="46.16969" lon="6.66147">
        <ele>1480</ele>
        <time>2021-09-17T11:25:00Z</time>
      </trkpt>
      <trkpt lat="46.16965" lon="6.66188">
        <ele>1479</ele>
        <time>2021-09-17T11:25:00Z</time>
      </trkpt>
      <trkpt lat="46.16962" lon="6.66221">
        <ele>1473</ele>
        <time>2021-09-17T11:25:00Z</time>
      </trkpt>
      <trkpt lat="46.16976" lon="6.6626">
        <ele>1472</ele>
        <time>2021-09-17T11:25:00Z</time>
      </trkpt>
      <trkpt lat="46.16993" lon="6.66311">
        <ele>1459</ele>
        <time>2021-09-17T11:25:00Z</time>
      </trkpt>
      <trkpt lat="46.17001" lon="6.66355">
        <ele>1464</ele>
        <time>2021-09-17T11:25:00Z</time>
      </trkpt>
      <trkpt lat="46.17011" lon="6.66405">
        <ele>1468</ele>
        <time>2021-09-17T11:25:00Z</time>
      </trkpt>
      <trkpt lat="46.17005" lon="6.66445">
        <ele>1476</ele>
        <time>2021-09-17T11:25:00Z</time>
      </trkpt>
      <trkpt lat="46.1699" lon="6.66481">
        <ele>1478</ele>
        <time>2021-09-17T11:25:00Z</time>
      </trkpt>
      <trkpt lat="46.16966" lon="6.66477">
        <ele>1477</ele>
        <time>2021-09-17T11:25:00Z</time>
      </trkpt>
      <trkpt lat="46.16957" lon="6.66447">
        <ele>1477</ele>
        <time>2021-09-17T11:25:00Z</time>
      </trkpt>
      <trkpt lat="46.16938" lon="6.66416">
        <ele>1485</ele>
        <time>2021-09-17T11:25:00Z</time>
      </trkpt>
      <trkpt lat="46.16915" lon="6.664">
        <ele>1498</ele>
        <time>2021-09-17T11:25:00Z</time>
      </trkpt>
      <trkpt lat="46.16892" lon="6.6639">
        <ele>1504</ele>
        <time>2021-09-17T11:25:00Z</time>
      </trkpt>
      <trkpt lat="46.16872" lon="6.66365">
        <ele>1505</ele>
        <time>2021-09-17T11:25:00Z</time>
      </trkpt>
      <trkpt lat="46.16858" lon="6.66312">
        <ele>1508</ele>
        <time>2021-09-17T11:25:00Z</time>
      </trkpt>
      <trkpt lat="46.16846" lon="6.66281">
        <ele>1509</ele>
        <time>2021-09-17T11:25:00Z</time>
      </trkpt>
      <trkpt lat="46.16837" lon="6.66242">
        <ele>1509</ele>
        <time>2021-09-17T11:25:00Z</time>
      </trkpt>
      <trkpt lat="46.1682" lon="6.6621">
        <ele>1510</ele>
        <time>2021-09-17T11:25:00Z</time>
      </trkpt>
      <trkpt lat="46.16793" lon="6.66176">
        <ele>1512</ele>
        <time>2021-09-17T11:25:00Z</time>
      </trkpt>
      <trkpt lat="46.16779" lon="6.66149">
        <ele>1519</ele>
        <time>2021-09-17T11:25:00Z</time>
      </trkpt>
      <trkpt lat="46.16761" lon="6.66125">
        <ele>1526</ele>
        <time>2021-09-17T11:25:00Z</time>
      </trkpt>
      <trkpt lat="46.16748" lon="6.66097">
        <ele>1528</ele>
        <time>2021-09-17T11:25:00Z</time>
      </trkpt>
      <trkpt lat="46.1672" lon="6.66052">
        <ele>1527</ele>
        <time>2021-09-17T11:25:00Z</time>
      </trkpt>
      <trkpt lat="46.167" lon="6.66027">
        <ele>1526</ele>
        <time>2021-09-17T11:25:00Z</time>
      </trkpt>
      <trkpt lat="46.16674" lon="6.65996">
        <ele>1527</ele>
        <time>2021-09-17T11:25:00Z</time>
      </trkpt>
      <trkpt lat="46.16628" lon="6.65966">
        <ele>1529</ele>
        <time>2021-09-17T11:25:00Z</time>
      </trkpt>
      <trkpt lat="46.16592" lon="6.65932">
        <ele>1532</ele>
        <time>2021-09-17T11:25:00Z</time>
      </trkpt>
      <trkpt lat="46.16561" lon="6.6591">
        <ele>1530</ele>
        <time>2021-09-17T11:25:00Z</time>
      </trkpt>
      <trkpt lat="46.16533" lon="6.65894">
        <ele>1531</ele>
        <time>2021-09-17T11:25:00Z</time>
      </trkpt>
      <trkpt lat="46.16516" lon="6.6585">
        <ele>1533</ele>
        <time>2021-09-17T11:25:00Z</time>
      </trkpt>
      <trkpt lat="46.16495" lon="6.65829">
        <ele>1533</ele>
        <time>2021-09-17T11:25:00Z</time>
      </trkpt>
      <trkpt lat="46.16463" lon="6.65804">
        <ele>1527</ele>
        <time>2021-09-17T11:25:00Z</time>
      </trkpt>
      <trkpt lat="46.16444" lon="6.65783">
        <ele>1524</ele>
        <time>2021-09-17T11:25:00Z</time>
      </trkpt>
      <trkpt lat="46.16431" lon="6.65744">
        <ele>1520</ele>
        <time>2021-09-17T11:25:00Z</time>
      </trkpt>
      <trkpt lat="46.16403" lon="6.65769">
        <ele>1510</ele>
        <time>2021-09-17T11:25:00Z</time>
      </trkpt>
      <trkpt lat="46.16398" lon="6.65801">
        <ele>1509</ele>
        <time>2021-09-17T11:25:00Z</time>
      </trkpt>
      <trkpt lat="46.16379" lon="6.65774">
        <ele>1509</ele>
        <time>2021-09-17T11:25:00Z</time>
      </trkpt>
      <trkpt lat="46.16366" lon="6.65745">
        <ele>1507</ele>
        <time>2021-09-17T11:25:00Z</time>
      </trkpt>
      <trkpt lat="46.16355" lon="6.65716">
        <ele>1506</ele>
        <time>2021-09-17T11:25:00Z</time>
      </trkpt>
      <trkpt lat="46.16338" lon="6.65687">
        <ele>1500</ele>
        <time>2021-09-17T11:25:00Z</time>
      </trkpt>
      <trkpt lat="46.16332" lon="6.65654">
        <ele>1500</ele>
        <time>2021-09-17T11:25:00Z</time>
      </trkpt>
      <trkpt lat="46.16308" lon="6.65624">
        <ele>1500</ele>
        <time>2021-09-17T11:25:00Z</time>
      </trkpt>
      <trkpt lat="46.16287" lon="6.65609">
        <ele>1500</ele>
        <time>2021-09-17T11:25:00Z</time>
      </trkpt>
      <trkpt lat="46.16262" lon="6.65589">
        <ele>1491</ele>
        <time>2021-09-17T11:25:00Z</time>
      </trkpt>
      <trkpt lat="46.1624" lon="6.6558">
        <ele>1486</ele>
        <time>2021-09-17T11:25:00Z</time>
      </trkpt>
      <trkpt lat="46.16221" lon="6.65556">
        <ele>1481</ele>
        <time>2021-09-17T11:25:00Z</time>
      </trkpt>
      <trkpt lat="46.16203" lon="6.65582">
        <ele>1477</ele>
        <time>2021-09-17T11:25:00Z</time>
      </trkpt>
      <trkpt lat="46.16181" lon="6.6562">
        <ele>1451</ele>
        <time>2021-09-17T11:25:00Z</time>
      </trkpt>
      <trkpt lat="46.16183" lon="6.6566">
        <ele>1451</ele>
        <time>2021-09-17T11:25:00Z</time>
      </trkpt>
      <trkpt lat="46.16174" lon="6.6569">
        <ele>1450</ele>
        <time>2021-09-17T11:25:00Z</time>
      </trkpt>
      <trkpt lat="46.1617" lon="6.65731">
        <ele>1450</ele>
        <time>2021-09-17T11:25:00Z</time>
      </trkpt>
      <trkpt lat="46.16163" lon="6.65767">
        <ele>1443</ele>
        <time>2021-09-17T11:25:00Z</time>
      </trkpt>
      <trkpt lat="46.16144" lon="6.65787">
        <ele>1432</ele>
        <time>2021-09-17T11:25:00Z</time>
      </trkpt>
      <trkpt lat="46.16116" lon="6.65774">
        <ele>1433</ele>
        <time>2021-09-17T11:25:00Z</time>
      </trkpt>
      <trkpt lat="46.16107" lon="6.65744">
        <ele>1434</ele>
        <time>2021-09-17T11:25:00Z</time>
      </trkpt>
      <trkpt lat="46.1609" lon="6.65719">
        <ele>1437</ele>
        <time>2021-09-17T11:25:00Z</time>
      </trkpt>
      <trkpt lat="46.16068" lon="6.65693">
        <ele>1437</ele>
        <time>2021-09-17T11:25:00Z</time>
      </trkpt>
      <trkpt lat="46.16047" lon="6.65676">
        <ele>1429</ele>
        <time>2021-09-17T11:25:00Z</time>
      </trkpt>
      <trkpt lat="46.16022" lon="6.65648">
        <ele>1418</ele>
        <time>2021-09-17T11:25:00Z</time>
      </trkpt>
      <trkpt lat="46.16003" lon="6.65627">
        <ele>1407</ele>
        <time>2021-09-17T11:25:00Z</time>
      </trkpt>
      <trkpt lat="46.15967" lon="6.65612">
        <ele>1404</ele>
        <time>2021-09-17T11:25:00Z</time>
      </trkpt>
      <trkpt lat="46.15944" lon="6.65595">
        <ele>1402</ele>
        <time>2021-09-17T11:25:00Z</time>
      </trkpt>
      <trkpt lat="46.1592" lon="6.65583">
        <ele>1397</ele>
        <time>2021-09-17T11:25:00Z</time>
      </trkpt>
      <trkpt lat="46.15894" lon="6.6558">
        <ele>1389</ele>
        <time>2021-09-17T11:25:00Z</time>
      </trkpt>
      <trkpt lat="46.15879" lon="6.65607">
        <ele>1389</ele>
        <time>2021-09-17T11:25:00Z</time>
      </trkpt>
      <trkpt lat="46.15845" lon="6.65588">
        <ele>1374</ele>
        <time>2021-09-17T11:25:00Z</time>
      </trkpt>
      <trkpt lat="46.15824" lon="6.65573">
        <ele>1363</ele>
        <time>2021-09-17T11:25:00Z</time>
      </trkpt>
      <trkpt lat="46.15808" lon="6.65542">
        <ele>1353</ele>
        <time>2021-09-17T11:25:00Z</time>
      </trkpt>
      <trkpt lat="46.15781" lon="6.65545">
        <ele>1344</ele>
        <time>2021-09-17T11:25:00Z</time>
      </trkpt>
      <trkpt lat="46.15767" lon="6.65596">
        <ele>1341</ele>
        <time>2021-09-17T11:25:00Z</time>
      </trkpt>
      <trkpt lat="46.1576" lon="6.65629">
        <ele>1340</ele>
        <time>2021-09-17T11:25:00Z</time>
      </trkpt>
      <trkpt lat="46.15762" lon="6.65667">
        <ele>1338</ele>
        <time>2021-09-17T11:25:00Z</time>
      </trkpt>
      <trkpt lat="46.15765" lon="6.65713">
        <ele>1328</ele>
        <time>2021-09-17T11:25:00Z</time>
      </trkpt>
      <trkpt lat="46.15767" lon="6.65755">
        <ele>1328</ele>
        <time>2021-09-17T11:25:00Z</time>
      </trkpt>
      <trkpt lat="46.15753" lon="6.65784">
        <ele>1327</ele>
        <time>2021-09-17T11:25:00Z</time>
      </trkpt>
      <trkpt lat="46.15769" lon="6.65817">
        <ele>1323</ele>
        <time>2021-09-17T11:25:00Z</time>
      </trkpt>
      <trkpt lat="46.15788" lon="6.65847">
        <ele>1320</ele>
        <time>2021-09-17T11:25:00Z</time>
      </trkpt>
      <trkpt lat="46.15813" lon="6.65874">
        <ele>1321</ele>
        <time>2021-09-17T11:25:00Z</time>
      </trkpt>
      <trkpt lat="46.15835" lon="6.65903">
        <ele>1326</ele>
        <time>2021-09-17T11:25:00Z</time>
      </trkpt>
      <trkpt lat="46.15856" lon="6.65921">
        <ele>1332</ele>
        <time>2021-09-17T11:25:00Z</time>
      </trkpt>
      <trkpt lat="46.15875" lon="6.65939">
        <ele>1332</ele>
        <time>2021-09-17T11:25:00Z</time>
      </trkpt>
      <trkpt lat="46.15898" lon="6.65969">
        <ele>1331</ele>
        <time>2021-09-17T11:25:00Z</time>
      </trkpt>
      <trkpt lat="46.15918" lon="6.65996">
        <ele>1334</ele>
        <time>2021-09-17T11:25:00Z</time>
      </trkpt>
      <trkpt lat="46.15947" lon="6.66021">
        <ele>1341</ele>
        <time>2021-09-17T11:25:00Z</time>
      </trkpt>
      <trkpt lat="46.1597" lon="6.6604">
        <ele>1344</ele>
        <time>2021-09-17T11:25:00Z</time>
      </trkpt>
      <trkpt lat="46.15996" lon="6.66049">
        <ele>1344</ele>
        <time>2021-09-17T11:25:00Z</time>
      </trkpt>
      <trkpt lat="46.16019" lon="6.66056">
        <ele>1345</ele>
        <time>2021-09-17T11:25:00Z</time>
      </trkpt>
      <trkpt lat="46.16042" lon="6.66057">
        <ele>1352</ele>
        <time>2021-09-17T11:25:00Z</time>
      </trkpt>
      <trkpt lat="46.16073" lon="6.66077">
        <ele>1346</ele>
        <time>2021-09-17T11:25:00Z</time>
      </trkpt>
      <trkpt lat="46.16097" lon="6.66087">
        <ele>1346</ele>
        <time>2021-09-17T11:25:00Z</time>
      </trkpt>
      <trkpt lat="46.16119" lon="6.66101">
        <ele>1349</ele>
        <time>2021-09-17T11:25:00Z</time>
      </trkpt>
      <trkpt lat="46.16143" lon="6.66088">
        <ele>1363</ele>
        <time>2021-09-17T11:25:00Z</time>
      </trkpt>
      <trkpt lat="46.16167" lon="6.66077">
        <ele>1360</ele>
        <time>2021-09-17T11:25:00Z</time>
      </trkpt>
      <trkpt lat="46.16173" lon="6.66113">
        <ele>1358</ele>
        <time>2021-09-17T11:25:00Z</time>
      </trkpt>
      <trkpt lat="46.16191" lon="6.6614">
        <ele>1358</ele>
        <time>2021-09-17T11:25:00Z</time>
      </trkpt>
      <trkpt lat="46.16204" lon="6.6617">
        <ele>1358</ele>
        <time>2021-09-17T11:25:00Z</time>
      </trkpt>
      <trkpt lat="46.16224" lon="6.66189">
        <ele>1354</ele>
        <time>2021-09-17T11:25:00Z</time>
      </trkpt>
      <trkpt lat="46.16238" lon="6.66215">
        <ele>1355</ele>
        <time>2021-09-17T11:25:00Z</time>
      </trkpt>
      <trkpt lat="46.1626" lon="6.66231">
        <ele>1357</ele>
        <time>2021-09-17T11:25:00Z</time>
      </trkpt>
      <trkpt lat="46.16279" lon="6.66249">
        <ele>1357</ele>
        <time>2021-09-17T11:25:00Z</time>
      </trkpt>
      <trkpt lat="46.16299" lon="6.66283">
        <ele>1356</ele>
        <time>2021-09-17T11:25:00Z</time>
      </trkpt>
      <trkpt lat="46.1631" lon="6.66319">
        <ele>1366</ele>
        <time>2021-09-17T11:25:00Z</time>
      </trkpt>
      <trkpt lat="46.16327" lon="6.66343">
        <ele>1364</ele>
        <time>2021-09-17T11:25:00Z</time>
      </trkpt>
      <trkpt lat="46.16345" lon="6.66369">
        <ele>1365</ele>
        <time>2021-09-17T11:25:00Z</time>
      </trkpt>
      <trkpt lat="46.16376" lon="6.664">
        <ele>1366</ele>
        <time>2021-09-17T11:25:00Z</time>
      </trkpt>
      <trkpt lat="46.16403" lon="6.66409">
        <ele>1366</ele>
        <time>2021-09-17T11:25:00Z</time>
      </trkpt>
      <trkpt lat="46.16428" lon="6.66422">
        <ele>1367</ele>
        <time>2021-09-17T11:25:00Z</time>
      </trkpt>
      <trkpt lat="46.1645" lon="6.66441">
        <ele>1363</ele>
        <time>2021-09-17T11:25:00Z</time>
      </trkpt>
      <trkpt lat="46.16473" lon="6.66449">
        <ele>1362</ele>
        <time>2021-09-17T11:25:00Z</time>
      </trkpt>
      <trkpt lat="46.1648" lon="6.66489">
        <ele>1357</ele>
        <time>2021-09-17T11:25:00Z</time>
      </trkpt>
      <trkpt lat="46.165" lon="6.66513">
        <ele>1354</ele>
        <time>2021-09-17T11:25:00Z</time>
      </trkpt>
      <trkpt lat="46.16512" lon="6.66542">
        <ele>1347</ele>
        <time>2021-09-17T11:25:00Z</time>
      </trkpt>
      <trkpt lat="46.16498" lon="6.66573">
        <ele>1340</ele>
        <time>2021-09-17T11:25:00Z</time>
      </trkpt>
      <trkpt lat="46.16486" lon="6.66614">
        <ele>1340</ele>
        <time>2021-09-17T11:25:00Z</time>
      </trkpt>
      <trkpt lat="46.16481" lon="6.66651">
        <ele>1330</ele>
        <time>2021-09-17T11:25:00Z</time>
      </trkpt>
      <trkpt lat="46.16492" lon="6.66683">
        <ele>1326</ele>
        <time>2021-09-17T11:25:00Z</time>
      </trkpt>
      <trkpt lat="46.16511" lon="6.66704">
        <ele>1322</ele>
        <time>2021-09-17T11:25:00Z</time>
      </trkpt>
      <trkpt lat="46.16534" lon="6.66717">
        <ele>1318</ele>
        <time>2021-09-17T11:25:00Z</time>
      </trkpt>
      <trkpt lat="46.16553" lon="6.66736">
        <ele>1318</ele>
        <time>2021-09-17T11:25:00Z</time>
      </trkpt>
      <trkpt lat="46.16548" lon="6.66769">
        <ele>1303</ele>
        <time>2021-09-17T11:25:00Z</time>
      </trkpt>
      <trkpt lat="46.16545" lon="6.66807">
        <ele>1287</ele>
        <time>2021-09-17T11:25:00Z</time>
      </trkpt>
      <trkpt lat="46.1654" lon="6.66845">
        <ele>1286</ele>
        <time>2021-09-17T11:25:00Z</time>
      </trkpt>
      <trkpt lat="46.16518" lon="6.66865">
        <ele>1286</ele>
        <time>2021-09-17T11:25:00Z</time>
      </trkpt>
      <trkpt lat="46.16495" lon="6.6686">
        <ele>1279</ele>
        <time>2021-09-17T11:25:00Z</time>
      </trkpt>
      <trkpt lat="46.16467" lon="6.66907">
        <ele>1267</ele>
        <time>2021-09-17T11:25:00Z</time>
      </trkpt>
      <trkpt lat="46.16459" lon="6.66946">
        <ele>1262</ele>
        <time>2021-09-17T11:25:00Z</time>
      </trkpt>
      <trkpt lat="46.16443" lon="6.66969">
        <ele>1241</ele>
        <time>2021-09-17T11:25:00Z</time>
      </trkpt>
      <trkpt lat="46.16406" lon="6.66964">
        <ele>1232</ele>
        <time>2021-09-17T11:25:00Z</time>
      </trkpt>
      <trkpt lat="46.16379" lon="6.6695">
        <ele>1231</ele>
        <time>2021-09-17T11:25:00Z</time>
      </trkpt>
      <trkpt lat="46.16356" lon="6.66953">
        <ele>1228</ele>
        <time>2021-09-17T11:25:00Z</time>
      </trkpt>
      <trkpt lat="46.16327" lon="6.66948">
        <ele>1220</ele>
        <time>2021-09-17T11:25:00Z</time>
      </trkpt>
      <trkpt lat="46.163" lon="6.66946">
        <ele>1218</ele>
        <time>2021-09-17T11:25:00Z</time>
      </trkpt>
      <trkpt lat="46.16267" lon="6.66947">
        <ele>1206</ele>
        <time>2021-09-17T11:25:00Z</time>
      </trkpt>
      <trkpt lat="46.16236" lon="6.66958">
        <ele>1206</ele>
        <time>2021-09-17T11:25:00Z</time>
      </trkpt>
      <trkpt lat="46.16214" lon="6.66946">
        <ele>1202</ele>
        <time>2021-09-17T11:25:00Z</time>
      </trkpt>
      <trkpt lat="46.16192" lon="6.66938">
        <ele>1195</ele>
        <time>2021-09-17T11:25:00Z</time>
      </trkpt>
      <trkpt lat="46.16168" lon="6.66944">
        <ele>1190</ele>
        <time>2021-09-17T11:25:00Z</time>
      </trkpt>
      <trkpt lat="46.16147" lon="6.66922">
        <ele>1184</ele>
        <time>2021-09-17T11:25:00Z</time>
      </trkpt>
      <trkpt lat="46.16123" lon="6.66904">
        <ele>1183</ele>
        <time>2021-09-17T11:25:00Z</time>
      </trkpt>
      <trkpt lat="46.16097" lon="6.6689">
        <ele>1183</ele>
        <time>2021-09-17T11:25:00Z</time>
      </trkpt>
      <trkpt lat="46.16071" lon="6.66893">
        <ele>1178</ele>
        <time>2021-09-17T11:25:00Z</time>
      </trkpt>
      <trkpt lat="46.16042" lon="6.66905">
        <ele>1173</ele>
        <time>2021-09-17T11:25:00Z</time>
      </trkpt>
      <trkpt lat="46.16024" lon="6.66929">
        <ele>1167</ele>
        <time>2021-09-17T11:25:00Z</time>
      </trkpt>
      <trkpt lat="46.16003" lon="6.66946">
        <ele>1162</ele>
        <time>2021-09-17T11:25:00Z</time>
      </trkpt>
      <trkpt lat="46.15981" lon="6.66964">
        <ele>1160</ele>
        <time>2021-09-17T11:25:00Z</time>
      </trkpt>
      <trkpt lat="46.15961" lon="6.6698">
        <ele>1160</ele>
        <time>2021-09-17T11:25:00Z</time>
      </trkpt>
      <trkpt lat="46.15978" lon="6.67009">
        <ele>1162</ele>
        <time>2021-09-17T11:25:00Z</time>
      </trkpt>
      <trkpt lat="46.16002" lon="6.67032">
        <ele>1162</ele>
        <time>2021-09-17T11:25:00Z</time>
      </trkpt>
      <trkpt lat="46.16016" lon="6.6707">
        <ele>1164</ele>
        <time>2021-09-17T11:25:00Z</time>
      </trkpt>
      <trkpt lat="46.16033" lon="6.67092">
        <ele>1165</ele>
        <time>2021-09-17T11:25:00Z</time>
      </trkpt>
      <trkpt lat="46.16048" lon="6.67118">
        <ele>1167</ele>
        <time>2021-09-17T11:25:00Z</time>
      </trkpt>
      <trkpt lat="46.16065" lon="6.6715">
        <ele>1168</ele>
        <time>2021-09-17T11:25:00Z</time>
      </trkpt>
    </trkseg>
  </trk>
</gpx>